Time,TemperatureF,DewpointF,PressureIn,WindDirection,WindDirectionDegrees,WindSpeedMPH,WindSpeedGustMPH,Humidity,HourlyPrecipIn,Conditions,Clouds,dailyrainin,SoftwareType,DateUTC
2013-02-26 00:00:00,17.1,9.9,29.99,North,-999,-999.0,-999.0,73,0.00,,,0.11,meteohub,2013-02-26 07:00:00,
2013-02-26 00:02:00,17.1,9.9,29.99,North,-999,-999.0,-999.0,73,0.00,,,0.11,meteohub,2013-02-26 07:02:00,
2013-02-26 00:03:00,17.1,9.9,29.99,North,-999,-999.0,-999.0,73,0.00,,,0.11,meteohub,2013-02-26 07:03:00,
2013-02-26 00:04:00,17.1,9.9,29.99,North,-999,-999.0,-999.0,73,0.00,,,0.11,meteohub,2013-02-26 07:04:00,
2013-02-26 00:09:00,17.1,10.2,29.98,North,-999,-999.0,-999.0,74,0.00,,,0.00,meteohub,2013-02-26 07:09:00,
2013-02-26 00:10:00,17.1,10.2,29.99,North,-999,-999.0,-999.0,74,0.00,,,0.00,meteohub,2013-02-26 07:10:00,
2013-02-26 00:11:00,17.1,10.2,29.99,North,-999,-999.0,-999.0,74,0.00,,,0.00,meteohub,2013-02-26 07:11:00,
2013-02-26 00:15:00,17.1,10.2,29.98,NW,305,0.0,-999.0,74,0.00,,,0.00,meteohub,2013-02-26 07:15:00,
2013-02-26 00:16:00,17.1,10.2,29.98,NW,305,0.0,-999.0,74,0.00,,,0.00,meteohub,2013-02-26 07:16:00,
2013-02-26 00:17:00,17.1,10.2,29.98,NW,305,0.0,0.0,74,0.00,,,0.00,meteohub,2013-02-26 07:17:00,
2013-02-26 00:21:00,17.1,10.2,29.98,NW,305,0.0,0.0,74,0.00,,,0.00,meteohub,2013-02-26 07:21:00,
2013-02-26 00:23:00,16.9,10.0,29.98,NW,305,0.0,0.0,74,0.00,,,0.00,meteohub,2013-02-26 07:23:00,
2013-02-26 00:26:00,16.7,9.9,29.98,NW,305,2.0,2.0,74,0.00,,,0.00,meteohub,2013-02-26 07:26:00,
2013-02-26 00:27:00,16.7,9.9,29.98,NW,305,1.0,2.0,74,0.00,,,0.00,meteohub,2013-02-26 07:27:00,
2013-02-26 00:28:00,16.7,9.9,29.98,NW,305,1.0,2.0,74,0.00,,,0.00,meteohub,2013-02-26 07:28:00,
2013-02-26 00:32:00,16.5,9.7,29.98,NW,305,1.0,2.0,74,0.00,,,0.00,meteohub,2013-02-26 07:32:00,
2013-02-26 00:33:00,16.5,10.0,29.98,NW,305,1.0,2.0,75,0.00,,,0.00,meteohub,2013-02-26 07:33:00,
2013-02-26 00:34:00,16.5,10.0,29.98,NW,305,0.0,2.0,75,0.00,,,0.00,meteohub,2013-02-26 07:34:00,
2013-02-26 00:38:00,16.5,10.0,29.98,NW,305,1.0,2.0,75,0.00,,,0.00,meteohub,2013-02-26 07:38:00,
2013-02-26 00:39:00,16.5,10.0,29.98,NW,305,2.0,2.0,75,0.00,,,0.00,meteohub,2013-02-26 07:39:00,
2013-02-26 00:40:00,16.5,10.0,29.98,NW,305,3.0,3.0,75,0.00,,,0.00,meteohub,2013-02-26 07:40:00,
2013-02-26 00:43:00,16.3,10.0,29.98,NW,305,2.0,3.0,76,0.00,,,0.00,meteohub,2013-02-26 07:43:00,
2013-02-26 00:44:00,16.3,10.0,29.97,NW,305,2.0,3.0,76,0.00,,,0.00,meteohub,2013-02-26 07:44:00,
2013-02-26 00:45:00,16.3,10.0,29.97,NW,305,2.0,3.0,76,0.00,,,0.00,meteohub,2013-02-26 07:45:00,
2013-02-26 00:49:00,16.5,10.6,29.98,NW,305,0.0,4.0,77,0.00,,,0.00,meteohub,2013-02-26 07:49:00,
2013-02-26 00:50:00,16.5,10.6,29.98,NW,305,1.0,4.0,77,0.00,,,0.00,meteohub,2013-02-26 07:50:00,
2013-02-26 00:52:00,16.5,10.6,29.98,NW,305,1.0,4.0,77,0.00,,,0.00,meteohub,2013-02-26 07:52:00,
2013-02-26 00:55:00,16.5,10.6,29.98,NW,305,0.0,4.0,77,0.00,,,0.00,meteohub,2013-02-26 07:55:00,
2013-02-26 00:57:00,16.5,10.2,29.98,NW,305,0.0,4.0,76,0.00,,,0.00,meteohub,2013-02-26 07:57:00,
2013-02-26 01:00:00,16.5,10.2,29.98,NW,305,0.0,4.0,76,0.00,,,0.00,meteohub,2013-02-26 08:00:00,
2013-02-26 01:01:00,16.5,10.2,29.98,NW,305,0.0,2.0,76,0.00,,,0.00,meteohub,2013-02-26 08:01:00,
2013-02-26 01:02:00,16.5,10.2,29.97,NW,305,0.0,2.0,76,0.00,,,0.00,meteohub,2013-02-26 08:02:00,
2013-02-26 01:04:00,16.5,10.2,29.97,NW,305,1.0,2.0,76,0.00,,,0.00,meteohub,2013-02-26 08:04:00,
2013-02-26 01:06:00,16.5,10.2,29.97,NW,305,1.0,2.0,76,0.00,,,0.00,meteohub,2013-02-26 08:06:00,
2013-02-26 01:07:00,16.5,10.2,29.97,NW,305,1.0,2.0,76,0.00,,,0.00,meteohub,2013-02-26 08:07:00,
2013-02-26 01:11:00,16.3,10.0,29.97,NW,305,0.0,2.0,76,0.00,,,0.00,meteohub,2013-02-26 08:11:00,
2013-02-26 01:12:00,16.3,10.0,29.97,NW,305,0.0,2.0,76,0.00,,,0.00,meteohub,2013-02-26 08:12:00,
2013-02-26 01:17:00,16.3,10.0,29.97,NW,305,0.0,2.0,76,0.00,,,0.00,meteohub,2013-02-26 08:17:00,
2013-02-26 01:20:00,16.3,10.0,29.97,NW,305,2.0,2.0,76,0.00,,,0.00,meteohub,2013-02-26 08:20:00,
2013-02-26 01:22:00,16.3,10.0,29.97,NW,305,0.0,2.0,76,0.00,,,0.00,meteohub,2013-02-26 08:22:00,
2013-02-26 01:24:00,16.3,10.0,29.97,NW,305,0.0,2.0,76,0.00,,,0.00,meteohub,2013-02-26 08:24:00,
2013-02-26 01:25:00,16.2,9.9,29.97,NW,305,0.0,2.0,76,0.00,,,0.00,meteohub,2013-02-26 08:25:00,
2013-02-26 01:27:00,16.2,9.9,29.97,NW,305,0.0,2.0,76,0.00,,,0.00,meteohub,2013-02-26 08:27:00,
2013-02-26 01:30:00,16.2,9.9,29.97,NW,305,1.0,2.0,76,0.00,,,0.00,meteohub,2013-02-26 08:30:00,
2013-02-26 01:31:00,16.2,9.9,29.97,NW,305,1.0,2.0,76,0.00,,,0.00,meteohub,2013-02-26 08:31:00,
2013-02-26 01:32:00,16.2,9.9,29.97,NW,305,0.0,2.0,76,0.00,,,0.00,meteohub,2013-02-26 08:32:00,
2013-02-26 01:33:00,16.2,9.9,29.97,NW,305,0.0,2.0,76,0.00,,,0.00,meteohub,2013-02-26 08:33:00,
2013-02-26 01:35:00,16.2,9.9,29.96,NW,305,0.0,2.0,76,0.00,,,0.00,meteohub,2013-02-26 08:35:00,
2013-02-26 01:36:00,16.2,10.2,29.97,NW,305,0.0,3.0,77,0.00,,,0.00,meteohub,2013-02-26 08:36:00,
2013-02-26 01:37:00,16.2,10.2,29.97,NW,305,0.0,3.0,77,0.00,,,0.00,meteohub,2013-02-26 08:37:00,
2013-02-26 01:40:00,16.2,10.2,29.97,NW,305,1.0,3.0,77,0.00,,,0.00,meteohub,2013-02-26 08:40:00,
2013-02-26 01:41:00,16.2,10.2,29.97,NW,305,0.0,3.0,77,0.00,,,0.00,meteohub,2013-02-26 08:41:00,
2013-02-26 01:42:00,16.2,10.2,29.97,NW,305,0.0,3.0,77,0.00,,,0.00,meteohub,2013-02-26 08:42:00,
2013-02-26 01:45:00,16.2,10.2,29.97,NW,305,0.0,3.0,77,0.00,,,0.00,meteohub,2013-02-26 08:45:00,
2013-02-26 01:46:00,16.2,10.2,29.97,NW,305,0.0,3.0,77,0.00,,,0.00,meteohub,2013-02-26 08:46:00,
2013-02-26 01:48:00,16.2,10.2,29.97,NW,305,0.0,3.0,77,0.00,,,0.00,meteohub,2013-02-26 08:48:00,
2013-02-26 01:49:00,16.2,10.2,29.97,NW,305,0.0,3.0,77,0.00,,,0.00,meteohub,2013-02-26 08:49:00,
2013-02-26 01:51:00,16.2,10.2,29.97,NW,305,1.0,3.0,77,0.00,,,0.00,meteohub,2013-02-26 08:51:00,
2013-02-26 01:52:00,16.3,10.4,29.97,NW,305,0.0,2.0,77,0.00,,,0.00,meteohub,2013-02-26 08:52:00,
2013-02-26 01:54:00,16.3,10.4,29.97,NW,305,1.0,2.0,77,0.00,,,0.00,meteohub,2013-02-26 08:54:00,
2013-02-26 01:57:00,16.5,10.9,29.97,NW,305,0.0,3.0,78,0.00,,,0.00,meteohub,2013-02-26 08:57:00,
2013-02-26 01:59:00,16.7,11.1,29.97,NW,305,0.0,3.0,78,0.00,,,0.00,meteohub,2013-02-26 08:59:00,
2013-02-26 02:02:00,16.7,11.1,29.98,NW,305,0.0,3.0,78,0.00,,,0.00,meteohub,2013-02-26 09:02:00,
2013-02-26 02:06:00,16.9,11.3,29.97,NW,305,0.0,3.0,78,0.00,,,0.00,meteohub,2013-02-26 09:06:00,
2013-02-26 02:07:00,16.9,11.3,29.98,NW,305,1.0,3.0,78,0.00,,,0.00,meteohub,2013-02-26 09:07:00,
2013-02-26 02:08:00,16.7,11.1,29.98,NW,305,1.0,3.0,78,0.00,,,0.00,meteohub,2013-02-26 09:08:00,
2013-02-26 02:11:00,16.9,11.3,29.97,NW,305,0.0,3.0,78,0.00,,,0.00,meteohub,2013-02-26 09:11:00,
2013-02-26 02:13:00,16.9,11.3,29.97,NW,305,0.0,3.0,78,0.00,,,0.00,meteohub,2013-02-26 09:13:00,
2013-02-26 02:15:00,16.9,11.3,29.97,NW,305,0.0,3.0,78,0.00,,,0.00,meteohub,2013-02-26 09:15:00,
2013-02-26 02:17:00,16.9,11.3,29.97,NW,305,0.0,2.0,78,0.00,,,0.00,meteohub,2013-02-26 09:17:00,
2013-02-26 02:18:00,16.9,11.3,29.97,NW,305,0.0,2.0,78,0.00,,,0.00,meteohub,2013-02-26 09:18:00,
2013-02-26 02:20:00,16.9,11.3,29.97,NW,305,0.0,2.0,78,0.00,,,0.00,meteohub,2013-02-26 09:20:00,
2013-02-26 02:21:00,16.9,11.3,29.97,NW,305,1.0,2.0,78,0.00,,,0.00,meteohub,2013-02-26 09:21:00,
2013-02-26 02:22:00,16.9,11.3,29.97,NW,305,1.0,2.0,78,0.00,,,0.00,meteohub,2013-02-26 09:22:00,
2013-02-26 02:26:00,17.1,11.5,29.97,NW,305,0.0,2.0,78,0.00,,,0.00,meteohub,2013-02-26 09:26:00,
2013-02-26 02:27:00,17.1,11.5,29.97,NW,305,0.0,2.0,78,0.00,,,0.00,meteohub,2013-02-26 09:27:00,
2013-02-26 02:32:00,17.2,11.5,29.97,NW,305,0.0,2.0,78,0.00,,,0.00,meteohub,2013-02-26 09:32:00,
2013-02-26 02:33:00,17.4,12.0,29.97,NW,305,0.0,2.0,79,0.00,,,0.00,meteohub,2013-02-26 09:33:00,
2013-02-26 02:37:00,17.6,12.2,29.97,NW,305,0.0,2.0,79,0.00,,,0.00,meteohub,2013-02-26 09:37:00,
2013-02-26 02:38:00,17.8,12.0,29.97,NW,305,0.0,2.0,78,0.00,,,0.00,meteohub,2013-02-26 09:38:00,
2013-02-26 02:39:00,17.8,12.0,29.97,NW,305,0.0,2.0,78,0.00,,,0.00,meteohub,2013-02-26 09:39:00,
2013-02-26 02:41:00,17.8,12.0,29.97,NW,305,0.0,2.0,78,0.00,,,0.00,meteohub,2013-02-26 09:41:00,
2013-02-26 02:42:00,17.8,12.0,29.97,NW,305,0.0,2.0,78,0.00,,,0.00,meteohub,2013-02-26 09:42:00,
2013-02-26 02:47:00,17.8,12.0,29.97,NW,305,0.0,1.0,78,0.00,,,0.00,meteohub,2013-02-26 09:47:00,
2013-02-26 02:48:00,17.8,12.0,29.97,NW,305,0.0,1.0,78,0.00,,,0.00,meteohub,2013-02-26 09:48:00,
2013-02-26 02:49:00,17.8,12.0,29.97,NW,305,0.0,1.0,78,0.00,,,0.00,meteohub,2013-02-26 09:49:00,
2013-02-26 02:50:00,17.6,11.8,29.97,NW,305,0.0,1.0,78,0.00,,,0.00,meteohub,2013-02-26 09:50:00,
2013-02-26 02:53:00,17.6,11.8,29.98,NW,305,0.0,0.0,78,0.00,,,0.00,meteohub,2013-02-26 09:53:00,
2013-02-26 02:56:00,17.6,11.7,29.98,NW,305,0.0,2.0,77,0.00,,,0.00,meteohub,2013-02-26 09:56:00,
2013-02-26 02:58:00,17.6,11.7,29.98,NW,305,0.0,2.0,77,0.00,,,0.00,meteohub,2013-02-26 09:58:00,
2013-02-26 02:59:00,17.6,11.7,29.97,NW,305,0.0,2.0,77,0.00,,,0.00,meteohub,2013-02-26 09:59:00,
2013-02-26 03:00:00,17.6,11.7,29.98,NW,305,0.0,2.0,77,0.00,,,0.00,meteohub,2013-02-26 10:00:00,
2013-02-26 03:02:00,17.4,11.5,29.97,NW,305,0.0,2.0,77,0.00,,,0.00,meteohub,2013-02-26 10:02:00,
2013-02-26 03:04:00,17.4,11.5,29.97,NW,305,0.0,2.0,77,0.00,,,0.00,meteohub,2013-02-26 10:04:00,
2013-02-26 03:06:00,17.4,11.5,29.98,NW,305,1.0,2.0,77,0.00,,,0.00,meteohub,2013-02-26 10:06:00,
2013-02-26 03:07:00,17.4,11.5,29.98,NW,305,2.0,2.0,77,0.00,,,0.00,meteohub,2013-02-26 10:07:00,
2013-02-26 03:09:00,17.4,11.5,29.97,NW,305,1.0,2.0,77,0.00,,,0.00,meteohub,2013-02-26 10:09:00,
2013-02-26 03:11:00,17.4,11.7,29.98,NW,305,1.0,4.0,78,0.00,,,0.00,meteohub,2013-02-26 10:11:00,
2013-02-26 03:13:00,17.4,11.7,29.98,NW,305,2.0,4.0,78,0.00,,,0.00,meteohub,2013-02-26 10:13:00,
2013-02-26 03:15:00,17.4,11.7,29.98,NW,305,2.0,4.0,78,0.00,,,0.00,meteohub,2013-02-26 10:15:00,
2013-02-26 03:16:00,17.6,11.8,29.98,NW,305,0.0,4.0,78,0.00,,,0.00,meteohub,2013-02-26 10:16:00,
2013-02-26 03:17:00,17.6,11.8,29.98,NW,305,0.0,4.0,78,0.00,,,0.00,meteohub,2013-02-26 10:17:00,
2013-02-26 03:18:00,17.6,11.8,29.98,NW,305,2.0,4.0,78,0.00,,,0.00,meteohub,2013-02-26 10:18:00,
2013-02-26 03:21:00,17.6,12.2,29.97,NW,305,1.0,4.0,79,0.00,,,0.00,meteohub,2013-02-26 10:21:00,
2013-02-26 03:22:00,17.8,12.4,29.97,NW,305,2.0,4.0,79,0.00,,,0.00,meteohub,2013-02-26 10:22:00,
2013-02-26 03:24:00,17.8,12.4,29.97,NW,305,2.0,4.0,79,0.00,,,0.00,meteohub,2013-02-26 10:24:00,
2013-02-26 03:27:00,17.8,12.4,29.98,NW,305,1.0,3.0,79,0.00,,,0.00,meteohub,2013-02-26 10:27:00,
2013-02-26 03:28:00,17.8,12.4,29.98,NW,305,2.0,3.0,79,0.00,,,0.00,meteohub,2013-02-26 10:28:00,
2013-02-26 03:29:00,17.8,12.4,29.98,NW,305,1.0,3.0,79,0.00,,,0.00,meteohub,2013-02-26 10:29:00,
2013-02-26 03:32:00,18.0,12.6,29.98,NW,305,0.0,3.0,79,0.00,,,0.00,meteohub,2013-02-26 10:32:00,
2013-02-26 03:34:00,18.0,12.6,29.97,NW,305,0.0,3.0,79,0.00,,,0.00,meteohub,2013-02-26 10:34:00,
2013-02-26 03:35:00,18.0,12.6,29.98,NW,305,0.0,3.0,79,0.00,,,0.00,meteohub,2013-02-26 10:35:00,
2013-02-26 03:38:00,18.1,12.7,29.98,NW,305,0.0,2.0,79,0.00,,,0.00,meteohub,2013-02-26 10:38:00,
2013-02-26 03:39:00,18.1,12.7,29.98,NW,305,0.0,2.0,79,0.00,,,0.00,meteohub,2013-02-26 10:39:00,
2013-02-26 03:40:00,18.1,12.7,29.98,NW,305,0.0,2.0,79,0.00,,,0.00,meteohub,2013-02-26 10:40:00,
2013-02-26 03:44:00,18.1,13.1,29.98,NW,305,0.0,2.0,80,0.00,,,0.00,meteohub,2013-02-26 10:44:00,
2013-02-26 03:45:00,18.1,13.1,29.98,NW,305,1.0,2.0,80,0.00,,,0.00,meteohub,2013-02-26 10:45:00,
2013-02-26 03:49:00,18.3,13.3,29.98,NW,305,0.0,1.0,80,0.00,,,0.00,meteohub,2013-02-26 10:49:00,
2013-02-26 03:50:00,18.3,13.3,29.97,NW,305,0.0,1.0,80,0.00,,,0.00,meteohub,2013-02-26 10:50:00,
2013-02-26 03:51:00,18.3,13.3,29.97,NW,305,1.0,2.0,80,0.00,,,0.00,meteohub,2013-02-26 10:51:00,
2013-02-26 03:52:00,18.3,13.3,29.97,NW,305,1.0,2.0,80,0.00,,,0.00,meteohub,2013-02-26 10:52:00,
2013-02-26 03:55:00,18.3,13.3,29.97,NW,305,0.0,2.0,80,0.00,,,0.00,meteohub,2013-02-26 10:55:00,
2013-02-26 03:57:00,18.3,13.3,29.97,NW,305,0.0,2.0,80,0.00,,,0.00,meteohub,2013-02-26 10:57:00,
2013-02-26 04:00:00,18.3,13.3,29.98,NW,305,0.0,2.0,80,0.00,,,0.00,meteohub,2013-02-26 11:00:00,
2013-02-26 04:01:00,18.5,13.3,29.97,NW,305,0.0,2.0,80,0.00,,,0.00,meteohub,2013-02-26 11:01:00,
2013-02-26 04:02:00,18.5,13.3,29.98,NW,305,0.0,2.0,80,0.00,,,0.00,meteohub,2013-02-26 11:02:00,
2013-02-26 04:03:00,18.5,13.3,29.98,NW,305,0.0,2.0,80,0.00,,,0.00,meteohub,2013-02-26 11:03:00,
2013-02-26 04:07:00,18.7,13.5,29.98,NW,305,3.0,4.0,80,0.00,,,0.00,meteohub,2013-02-26 11:07:00,
2013-02-26 04:10:00,18.7,13.5,29.98,NW,305,0.0,4.0,80,0.00,,,0.00,meteohub,2013-02-26 11:10:00,
2013-02-26 04:12:00,18.9,13.6,29.97,NW,305,2.0,4.0,80,0.00,,,0.00,meteohub,2013-02-26 11:12:00,
2013-02-26 04:13:00,18.9,13.6,29.98,NW,305,3.0,4.0,80,0.00,,,0.00,meteohub,2013-02-26 11:13:00,
2013-02-26 04:14:00,18.9,13.6,29.97,NW,305,2.0,4.0,80,0.00,,,0.00,meteohub,2013-02-26 11:14:00,
2013-02-26 04:17:00,19.0,13.8,29.97,NW,305,0.0,4.0,80,0.00,,,0.00,meteohub,2013-02-26 11:17:00,
2013-02-26 04:18:00,19.0,13.8,29.97,NW,305,0.0,4.0,80,0.00,,,0.00,meteohub,2013-02-26 11:18:00,
2013-02-26 04:19:00,19.0,13.8,29.97,NW,305,0.0,4.0,80,0.00,,,0.00,meteohub,2013-02-26 11:19:00,
2013-02-26 04:21:00,19.2,14.0,29.97,NW,305,1.0,4.0,80,0.00,,,0.00,meteohub,2013-02-26 11:21:00,
2013-02-26 04:22:00,19.2,14.0,29.97,NW,305,2.0,4.0,80,0.00,,,0.00,meteohub,2013-02-26 11:22:00,
2013-02-26 04:24:00,19.2,14.0,29.97,NW,305,1.0,4.0,80,0.00,,,0.00,meteohub,2013-02-26 11:24:00,
2013-02-26 04:25:00,19.4,14.2,29.97,NW,305,1.0,4.0,80,0.00,,,0.00,meteohub,2013-02-26 11:25:00,
2013-02-26 04:27:00,19.4,14.2,29.97,NW,305,1.0,3.0,80,0.00,,,0.00,meteohub,2013-02-26 11:27:00,
2013-02-26 04:28:00,19.6,14.4,29.97,NW,305,2.0,3.0,80,0.00,,,0.00,meteohub,2013-02-26 11:28:00,
2013-02-26 04:30:00,19.6,14.4,29.97,NW,305,0.0,3.0,80,0.00,,,0.00,meteohub,2013-02-26 11:30:00,
2013-02-26 04:31:00,19.6,14.2,29.98,NW,305,1.0,3.0,79,0.00,,,0.00,meteohub,2013-02-26 11:31:00,
2013-02-26 04:32:00,19.6,14.2,29.97,NW,305,2.0,3.0,79,0.00,,,0.00,meteohub,2013-02-26 11:32:00,
2013-02-26 04:33:00,19.6,14.2,29.97,NW,305,2.0,3.0,79,0.00,,,0.00,meteohub,2013-02-26 11:33:00,
2013-02-26 04:35:00,19.8,14.4,29.97,NW,305,0.0,3.0,79,0.00,,,0.00,meteohub,2013-02-26 11:35:00,
2013-02-26 04:36:00,19.8,14.4,29.97,NW,305,0.0,3.0,79,0.00,,,0.00,meteohub,2013-02-26 11:36:00,
2013-02-26 04:37:00,19.8,14.4,29.97,NW,305,0.0,3.0,79,0.00,,,0.00,meteohub,2013-02-26 11:37:00,
2013-02-26 04:38:00,19.8,14.4,29.97,NW,305,0.0,3.0,79,0.00,,,0.00,meteohub,2013-02-26 11:38:00,
2013-02-26 04:41:00,19.8,14.4,29.97,NW,305,0.0,3.0,79,0.00,,,0.00,meteohub,2013-02-26 11:41:00,
2013-02-26 04:42:00,19.8,14.4,29.97,NW,305,0.0,3.0,79,0.00,,,0.00,meteohub,2013-02-26 11:42:00,
2013-02-26 04:43:00,19.8,14.4,29.97,NW,305,0.0,3.0,79,0.00,,,0.00,meteohub,2013-02-26 11:43:00,
2013-02-26 04:46:00,19.8,14.4,29.97,NW,305,0.0,3.0,79,0.00,,,0.00,meteohub,2013-02-26 11:46:00,
2013-02-26 04:47:00,19.8,14.4,29.97,NW,305,0.0,3.0,79,0.00,,,0.00,meteohub,2013-02-26 11:47:00,
2013-02-26 04:49:00,19.8,14.4,29.97,NW,305,2.0,3.0,79,0.00,,,0.00,meteohub,2013-02-26 11:49:00,
2013-02-26 04:50:00,19.8,14.4,29.97,NW,305,2.0,3.0,79,0.00,,,0.00,meteohub,2013-02-26 11:50:00,
2013-02-26 04:52:00,19.8,14.4,29.97,NW,305,2.0,3.0,79,0.00,,,0.00,meteohub,2013-02-26 11:52:00,
2013-02-26 05:05:00,20.1,14.9,29.97,NW,305,2.0,4.0,80,0.00,,,0.00,meteohub,2013-02-26 12:05:00,
2013-02-26 05:06:00,20.1,14.9,29.97,NW,305,1.0,4.0,80,0.00,,,0.00,meteohub,2013-02-26 12:06:00,
2013-02-26 05:07:00,20.1,14.9,29.97,NW,305,1.0,4.0,80,0.00,,,0.00,meteohub,2013-02-26 12:07:00,
2013-02-26 05:08:00,20.1,14.9,29.97,NW,305,0.0,4.0,80,0.00,,,0.00,meteohub,2013-02-26 12:08:00,
2013-02-26 05:11:00,20.1,14.9,29.97,NW,305,1.0,4.0,80,0.00,,,0.00,meteohub,2013-02-26 12:11:00,
2013-02-26 05:12:00,20.1,14.9,29.97,NW,305,0.0,4.0,80,0.00,,,0.00,meteohub,2013-02-26 12:12:00,
2013-02-26 05:16:00,20.3,15.1,29.97,NW,305,1.0,4.0,80,0.00,,,0.00,meteohub,2013-02-26 12:16:00,
2013-02-26 05:17:00,20.3,15.1,29.97,NW,305,1.0,4.0,80,0.00,,,0.00,meteohub,2013-02-26 12:17:00,
2013-02-26 05:19:00,20.5,15.3,29.97,NW,305,0.0,3.0,80,0.00,,,0.00,meteohub,2013-02-26 12:19:00,
2013-02-26 05:22:00,20.5,15.6,29.97,NW,305,2.0,3.0,81,0.00,,,0.00,meteohub,2013-02-26 12:22:00,
2013-02-26 05:24:00,20.5,15.3,29.97,NW,305,2.0,3.0,80,0.00,,,0.00,meteohub,2013-02-26 12:24:00,
2013-02-26 05:25:00,20.5,15.3,29.97,NW,305,3.0,3.0,80,0.00,,,0.00,meteohub,2013-02-26 12:25:00,
2013-02-26 05:27:00,20.5,15.3,29.97,NW,305,3.0,3.0,80,0.00,,,0.00,meteohub,2013-02-26 12:27:00,
2013-02-26 05:30:00,20.5,15.3,29.97,NW,305,3.0,3.0,80,0.00,,,0.00,meteohub,2013-02-26 12:30:00,
2013-02-26 05:33:00,20.5,15.3,29.97,NW,305,0.0,3.0,80,0.00,,,0.00,meteohub,2013-02-26 12:33:00,
2013-02-26 05:36:00,20.5,15.3,29.98,NW,305,0.0,4.0,80,0.00,,,0.00,meteohub,2013-02-26 12:36:00,
2013-02-26 05:37:00,20.5,15.3,29.98,NW,305,2.0,4.0,80,0.00,,,0.00,meteohub,2013-02-26 12:37:00,
2013-02-26 05:38:00,20.5,15.3,29.98,NW,305,1.0,4.0,80,0.00,,,0.00,meteohub,2013-02-26 12:38:00,
2013-02-26 05:39:00,20.5,15.3,29.98,NW,305,0.0,4.0,80,0.00,,,0.00,meteohub,2013-02-26 12:39:00,
2013-02-26 05:41:00,20.5,15.3,29.98,NW,305,0.0,4.0,80,0.00,,,0.00,meteohub,2013-02-26 12:41:00,
2013-02-26 05:44:00,20.5,15.3,29.98,NW,305,0.0,4.0,80,0.00,,,0.00,meteohub,2013-02-26 12:44:00,
2013-02-26 05:45:00,20.5,15.3,29.98,NW,305,0.0,4.0,80,0.00,,,0.00,meteohub,2013-02-26 12:45:00,
2013-02-26 05:46:00,20.5,15.3,29.98,NW,305,0.0,3.0,80,0.00,,,0.00,meteohub,2013-02-26 12:46:00,
2013-02-26 05:48:00,20.5,15.3,29.98,NW,305,0.0,3.0,80,0.00,,,0.00,meteohub,2013-02-26 12:48:00,
2013-02-26 05:50:00,20.5,15.3,29.98,NW,305,0.0,3.0,80,0.00,,,0.00,meteohub,2013-02-26 12:50:00,
2013-02-26 05:52:00,20.5,15.3,29.98,NW,305,1.0,2.0,80,0.00,,,0.00,meteohub,2013-02-26 12:52:00,
2013-02-26 05:54:00,20.5,15.3,29.98,NW,305,0.0,2.0,80,0.00,,,0.00,meteohub,2013-02-26 12:54:00,
2013-02-26 05:56:00,20.7,15.4,29.98,NW,305,0.0,2.0,80,0.00,,,0.00,meteohub,2013-02-26 12:56:00,
2013-02-26 05:58:00,20.7,15.4,29.98,NW,305,0.0,2.0,80,0.00,,,0.00,meteohub,2013-02-26 12:58:00,
2013-02-26 05:59:00,20.7,15.4,29.98,NW,305,0.0,2.0,80,0.00,,,0.00,meteohub,2013-02-26 12:59:00,
2013-02-26 06:01:00,20.7,15.4,29.98,NW,305,0.0,2.0,80,0.00,,,0.00,meteohub,2013-02-26 13:01:00,
2013-02-26 06:02:00,20.7,15.4,29.98,NW,305,1.0,2.0,80,0.00,,,0.00,meteohub,2013-02-26 13:02:00,
2013-02-26 06:05:00,20.7,15.4,29.98,NW,305,0.0,2.0,80,0.00,,,0.00,meteohub,2013-02-26 13:05:00,
2013-02-26 06:07:00,20.8,15.6,29.98,NW,305,0.0,2.0,80,0.00,,,0.00,meteohub,2013-02-26 13:07:00,
2013-02-26 06:10:00,20.8,15.6,29.98,NW,305,0.0,2.0,80,0.00,,,0.00,meteohub,2013-02-26 13:10:00,
2013-02-26 06:11:00,20.8,15.6,29.98,NW,305,0.0,2.0,80,0.00,,,0.00,meteohub,2013-02-26 13:11:00,
2013-02-26 06:12:00,20.8,15.6,29.98,NW,305,0.0,2.0,80,0.00,,,0.00,meteohub,2013-02-26 13:12:00,
2013-02-26 06:16:00,20.8,15.6,29.98,NW,305,0.0,2.0,80,0.00,,,0.00,meteohub,2013-02-26 13:16:00,
2013-02-26 06:17:00,21.0,15.8,29.98,NW,305,0.0,2.0,80,0.00,,,0.00,meteohub,2013-02-26 13:17:00,
2013-02-26 06:18:00,21.0,15.8,29.98,NW,305,1.0,2.0,80,0.00,,,0.00,meteohub,2013-02-26 13:18:00,
2013-02-26 06:19:00,21.0,15.8,29.98,NW,305,0.0,2.0,80,0.00,,,0.00,meteohub,2013-02-26 13:19:00,
2013-02-26 06:21:00,21.0,15.8,29.98,NW,305,0.0,2.0,80,0.00,,,0.00,meteohub,2013-02-26 13:21:00,
2013-02-26 06:22:00,21.0,15.8,29.98,NW,305,0.0,2.0,80,0.00,,,0.00,meteohub,2013-02-26 13:22:00,
2013-02-26 06:24:00,21.0,15.8,29.98,NW,305,0.0,2.0,80,0.00,,,0.00,meteohub,2013-02-26 13:24:00,
2013-02-26 06:26:00,21.0,16.2,29.98,NW,305,0.0,2.0,81,0.00,,,0.00,meteohub,2013-02-26 13:26:00,
2013-02-26 06:28:00,21.2,16.3,29.98,NW,305,0.0,2.0,81,0.00,,,0.00,meteohub,2013-02-26 13:28:00,
2013-02-26 06:29:00,21.2,16.3,29.98,NW,305,1.0,2.0,81,0.00,,,0.00,meteohub,2013-02-26 13:29:00,
2013-02-26 06:31:00,21.4,16.5,29.98,NW,305,2.0,3.0,81,0.00,,,0.00,meteohub,2013-02-26 13:31:00,
2013-02-26 06:32:00,21.4,16.5,29.98,NW,305,2.0,3.0,81,0.00,,,0.00,meteohub,2013-02-26 13:32:00,
2013-02-26 06:36:00,21.4,16.5,29.98,NW,305,0.0,3.0,81,0.00,,,0.00,meteohub,2013-02-26 13:36:00,
2013-02-26 06:37:00,21.4,16.5,29.98,NW,305,3.0,3.0,81,0.00,,,0.00,meteohub,2013-02-26 13:37:00,
2013-02-26 06:41:00,21.6,16.7,29.98,NW,305,3.0,3.0,81,0.00,,,0.00,meteohub,2013-02-26 13:41:00,
2013-02-26 06:44:00,21.6,16.7,29.98,NW,305,0.0,4.0,81,0.00,,,0.00,meteohub,2013-02-26 13:44:00,
2013-02-26 06:46:00,21.6,16.7,29.98,NW,305,2.0,4.0,81,0.00,,,0.00,meteohub,2013-02-26 13:46:00,
2013-02-26 06:47:00,21.6,16.7,29.98,NW,305,2.0,4.0,81,0.00,,,0.00,meteohub,2013-02-26 13:47:00,
2013-02-26 06:49:00,21.6,16.7,29.98,NW,305,2.0,4.0,81,0.00,,,0.00,meteohub,2013-02-26 13:49:00,
2013-02-26 06:50:00,21.6,16.7,29.98,NW,305,1.0,4.0,81,0.00,,,0.00,meteohub,2013-02-26 13:50:00,
2013-02-26 06:52:00,21.6,16.7,29.98,NW,305,3.0,4.0,81,0.00,,,0.00,meteohub,2013-02-26 13:52:00,
2013-02-26 06:55:00,21.6,16.7,29.98,NW,305,2.0,4.0,81,0.00,,,0.00,meteohub,2013-02-26 13:55:00,
2013-02-26 06:57:00,21.6,16.7,29.98,NW,305,3.0,4.0,81,0.00,,,0.00,meteohub,2013-02-26 13:57:00,
2013-02-26 07:08:00,22.6,17.8,29.97,SSW,212,5.0,6.0,81,0.00,,,0.00,meteohub,2013-02-26 14:08:00,
2013-02-26 07:10:00,22.8,18.0,29.97,SSW,209,5.0,6.0,81,0.00,,,0.00,meteohub,2013-02-26 14:10:00,
2013-02-26 07:11:00,22.8,18.0,29.97,SSW,194,5.0,6.0,81,0.00,,,0.00,meteohub,2013-02-26 14:11:00,
2013-02-26 07:14:00,22.8,18.0,29.97,SSW,196,5.0,6.0,81,0.00,,,0.00,meteohub,2013-02-26 14:14:00,
2013-02-26 07:15:00,23.0,18.0,29.97,SSW,196,5.0,6.0,81,0.00,,,0.00,meteohub,2013-02-26 14:15:00,
2013-02-26 07:17:00,23.0,17.8,29.97,SSW,194,4.0,7.0,80,0.00,,,0.00,meteohub,2013-02-26 14:17:00,
2013-02-26 07:19:00,23.2,18.0,29.97,South,186,5.0,7.0,80,0.00,,,0.00,meteohub,2013-02-26 14:19:00,
2013-02-26 07:20:00,23.2,18.0,29.97,SSW,193,4.0,7.0,80,0.00,,,0.00,meteohub,2013-02-26 14:20:00,
2013-02-26 07:23:00,23.2,18.0,29.97,SSW,203,4.0,7.0,80,0.00,,,0.00,meteohub,2013-02-26 14:23:00,
2013-02-26 07:24:00,23.2,18.0,29.98,SSW,193,3.0,7.0,80,0.00,,,0.00,meteohub,2013-02-26 14:24:00,
2013-02-26 07:28:00,23.4,18.1,29.98,SSW,199,2.0,7.0,80,0.00,,,0.00,meteohub,2013-02-26 14:28:00,
2013-02-26 07:29:00,23.4,18.1,29.98,SSW,200,3.0,7.0,80,0.00,,,0.00,meteohub,2013-02-26 14:29:00,
2013-02-26 07:30:00,23.4,18.1,29.98,SSW,200,3.0,7.0,80,0.00,,,0.00,meteohub,2013-02-26 14:30:00,
2013-02-26 07:34:00,23.5,18.5,29.98,SSW,200,2.0,6.0,81,0.00,,,0.00,meteohub,2013-02-26 14:34:00,
2013-02-26 07:36:00,23.5,18.3,29.98,SSW,200,2.0,6.0,80,0.00,,,0.00,meteohub,2013-02-26 14:36:00,
2013-02-26 07:39:00,23.7,18.7,29.98,SSW,200,2.0,6.0,81,0.00,,,0.00,meteohub,2013-02-26 14:39:00,
2013-02-26 07:40:00,23.7,18.7,29.98,SSW,200,0.0,6.0,81,0.00,,,0.00,meteohub,2013-02-26 14:40:00,
2013-02-26 07:41:00,23.7,18.7,29.98,SSW,200,1.0,6.0,81,0.00,,,0.00,meteohub,2013-02-26 14:41:00,
2013-02-26 07:42:00,23.9,18.9,29.98,SSW,200,2.0,6.0,81,0.00,,,0.00,meteohub,2013-02-26 14:42:00,
2013-02-26 07:45:00,24.1,19.0,29.98,SSW,200,2.0,6.0,81,0.00,,,0.00,meteohub,2013-02-26 14:45:00,
2013-02-26 07:46:00,24.3,19.2,29.98,SSW,200,2.0,4.0,81,0.00,,,0.00,meteohub,2013-02-26 14:46:00,
2013-02-26 07:47:00,24.3,19.2,29.98,SSW,200,3.0,4.0,81,0.00,,,0.00,meteohub,2013-02-26 14:47:00,
2013-02-26 07:52:00,24.8,19.8,29.98,SW,221,3.0,3.0,81,0.00,,,0.00,meteohub,2013-02-26 14:52:00,
2013-02-26 07:53:00,25.2,20.1,29.98,SW,221,2.0,3.0,81,0.00,,,0.00,meteohub,2013-02-26 14:53:00,
2013-02-26 07:54:00,25.2,20.1,29.98,SW,221,3.0,3.0,81,0.00,,,0.00,meteohub,2013-02-26 14:54:00,
2013-02-26 07:58:00,25.5,20.5,29.98,SW,221,2.0,4.0,81,0.00,,,0.00,meteohub,2013-02-26 14:58:00,
2013-02-26 07:59:00,25.5,20.5,29.98,SW,222,4.0,4.0,81,0.00,,,0.00,meteohub,2013-02-26 14:59:00,
2013-02-26 08:00:00,25.7,20.7,29.98,SW,222,3.0,4.0,81,0.00,,,0.00,meteohub,2013-02-26 15:00:00,
2013-02-26 08:04:00,26.1,21.0,29.98,SW,222,4.0,5.0,81,0.00,,,0.00,meteohub,2013-02-26 15:04:00,
2013-02-26 08:06:00,26.2,20.8,29.98,SW,222,0.0,5.0,80,0.00,,,0.00,meteohub,2013-02-26 15:06:00,
2013-02-26 08:08:00,26.4,21.0,29.98,SW,222,0.0,5.0,80,0.00,,,0.00,meteohub,2013-02-26 15:08:00,
2013-02-26 08:09:00,26.6,21.2,29.98,SW,223,2.0,5.0,80,0.00,,,0.00,meteohub,2013-02-26 15:09:00,
2013-02-26 08:12:00,26.6,21.2,29.99,North,5,5.0,5.0,80,0.00,,,0.00,meteohub,2013-02-26 15:12:00,
2013-02-26 08:13:00,26.8,21.4,29.98,NE,51,2.0,5.0,80,0.00,,,0.00,meteohub,2013-02-26 15:13:00,
2013-02-26 08:14:00,26.8,21.4,29.99,NE,53,2.0,5.0,80,0.00,,,0.00,meteohub,2013-02-26 15:14:00,
2013-02-26 08:16:00,26.8,21.4,29.99,NE,49,3.0,5.0,80,0.00,,,0.00,meteohub,2013-02-26 15:16:00,
2013-02-26 08:18:00,26.8,21.2,29.98,NE,49,2.0,5.0,79,0.00,,,0.00,meteohub,2013-02-26 15:18:00,
2013-02-26 08:20:00,27.0,21.4,29.99,NE,49,0.0,5.0,79,0.00,,,0.00,meteohub,2013-02-26 15:20:00,
2013-02-26 08:21:00,27.0,21.4,29.99,NE,49,3.0,5.0,79,0.00,,,0.00,meteohub,2013-02-26 15:21:00,
2013-02-26 08:22:00,27.0,21.4,29.99,NE,49,2.0,5.0,79,0.00,,,0.00,meteohub,2013-02-26 15:22:00,
2013-02-26 08:23:00,27.0,21.4,29.99,NE,49,1.0,5.0,79,0.00,,,0.00,meteohub,2013-02-26 15:23:00,
2013-02-26 08:27:00,27.1,21.2,29.99,NNE,23,3.0,5.0,78,0.00,,,0.00,meteohub,2013-02-26 15:27:00,
2013-02-26 08:29:00,27.1,21.2,29.99,NNE,23,2.0,5.0,78,0.00,,,0.00,meteohub,2013-02-26 15:29:00,
2013-02-26 08:32:00,27.3,21.0,29.99,NNE,16,3.0,4.0,77,0.00,,,0.00,meteohub,2013-02-26 15:32:00,
2013-02-26 08:33:00,27.3,21.0,29.99,NNE,16,2.0,4.0,77,0.00,,,0.00,meteohub,2013-02-26 15:33:00,
2013-02-26 08:36:00,27.7,21.0,29.99,NNE,16,3.0,4.0,76,0.00,,,0.00,meteohub,2013-02-26 15:36:00,
2013-02-26 08:37:00,27.7,21.0,29.99,NNE,16,3.0,6.0,76,0.00,,,0.00,meteohub,2013-02-26 15:37:00,
2013-02-26 08:38:00,27.9,21.2,29.99,NNE,24,5.0,6.0,76,0.00,,,0.00,meteohub,2013-02-26 15:38:00,
2013-02-26 08:41:00,28.2,21.4,29.99,NNE,28,10.0,10.0,75,0.00,,,0.00,meteohub,2013-02-26 15:41:00,
2013-02-26 08:42:00,28.2,21.4,29.99,NNE,16,9.0,9.0,75,0.00,,,0.00,meteohub,2013-02-26 15:42:00,
2013-02-26 08:43:00,28.6,21.4,29.99,North,355,10.0,10.0,74,0.00,,,0.00,meteohub,2013-02-26 15:43:00,
2013-02-26 08:44:00,28.8,21.6,29.99,NNE,12,7.0,8.0,74,0.00,,,0.00,meteohub,2013-02-26 15:44:00,
2013-02-26 08:48:00,28.9,21.0,29.99,NNW,348,4.0,11.0,72,0.00,,,0.00,meteohub,2013-02-26 15:48:00,
2013-02-26 08:49:00,29.1,20.8,29.99,North,11,7.0,11.0,71,0.00,,,0.00,meteohub,2013-02-26 15:49:00,
2013-02-26 08:52:00,29.5,21.2,29.99,NNE,24,9.0,12.0,71,0.00,,,0.00,meteohub,2013-02-26 15:52:00,
2013-02-26 08:53:00,29.5,20.8,29.99,North,5,10.0,12.0,70,0.00,,,0.00,meteohub,2013-02-26 15:53:00,
2013-02-26 08:56:00,29.3,20.7,29.99,NNE,21,11.0,13.0,70,0.00,,,0.00,meteohub,2013-02-26 15:56:00,
2013-02-26 08:57:00,29.3,20.7,29.99,NNE,29,7.0,13.0,70,0.00,,,0.00,meteohub,2013-02-26 15:57:00,
2013-02-26 08:58:00,29.1,20.5,29.99,NNE,22,12.0,13.0,70,0.00,,,0.00,meteohub,2013-02-26 15:58:00,
2013-02-26 09:00:00,28.9,20.5,29.99,NNE,26,12.0,13.0,70,0.00,,,0.00,meteohub,2013-02-26 16:00:00,
2013-02-26 09:01:00,28.8,20.3,29.99,North,5,8.0,14.0,70,0.00,,,0.00,meteohub,2013-02-26 16:01:00,
2013-02-26 09:02:00,28.8,20.3,29.99,NNE,15,9.0,14.0,70,0.00,,,0.00,meteohub,2013-02-26 16:02:00,
2013-02-26 09:05:00,28.6,19.8,29.99,NNE,33,12.0,14.0,69,0.00,,,0.00,meteohub,2013-02-26 16:05:00,
2013-02-26 09:06:00,28.6,19.8,29.99,North,11,9.0,14.0,69,0.00,,,0.00,meteohub,2013-02-26 16:06:00,
2013-02-26 09:07:00,28.6,19.8,29.99,NNE,21,8.0,14.0,69,0.00,,,0.00,meteohub,2013-02-26 16:07:00,
2013-02-26 09:08:00,28.8,19.9,29.99,NNE,25,10.0,14.0,69,0.00,,,0.00,meteohub,2013-02-26 16:08:00,
2013-02-26 09:11:00,28.8,19.9,29.99,NNE,17,5.0,14.0,69,0.00,,,0.00,meteohub,2013-02-26 16:11:00,
2013-02-26 09:12:00,28.8,19.9,29.99,NNE,13,8.0,14.0,69,0.00,,,0.00,meteohub,2013-02-26 16:12:00,
2013-02-26 09:14:00,28.8,19.9,29.99,NNE,18,6.0,14.0,69,0.00,,,0.00,meteohub,2013-02-26 16:14:00,
2013-02-26 09:16:00,28.8,19.9,29.99,North,0,5.0,13.0,69,0.00,,,0.00,meteohub,2013-02-26 16:16:00,
2013-02-26 09:19:00,28.8,19.9,29.99,NNE,31,8.0,13.0,69,0.00,,,0.00,meteohub,2013-02-26 16:19:00,
2013-02-26 09:20:00,28.8,19.9,29.99,NNE,24,6.0,13.0,69,0.00,,,0.00,meteohub,2013-02-26 16:20:00,
2013-02-26 09:21:00,28.8,19.9,29.99,NNE,32,4.0,13.0,69,0.00,,,0.00,meteohub,2013-02-26 16:21:00,
2013-02-26 09:22:00,28.8,19.9,29.99,NNE,22,6.0,13.0,69,0.00,,,0.00,meteohub,2013-02-26 16:22:00,
2013-02-26 10:26:00,29.8,23.2,29.98,NE,55,0.0,3.0,76,-99.99,,,0.00,meteohub,2013-02-26 17:26:00,
2013-02-26 10:27:00,29.8,23.2,29.98,NE,55,0.0,3.0,76,-99.99,,,0.00,meteohub,2013-02-26 17:27:00,
2013-02-26 10:28:00,29.8,23.5,29.98,NE,55,0.0,3.0,77,-99.99,,,0.00,meteohub,2013-02-26 17:28:00,
2013-02-26 10:32:00,29.8,23.2,29.98,NE,55,1.0,3.0,76,0.00,,,0.00,meteohub,2013-02-26 17:32:00,
2013-02-26 10:33:00,30.0,23.4,29.98,NE,55,0.0,3.0,76,0.00,,,0.00,meteohub,2013-02-26 17:33:00,
2013-02-26 10:34:00,29.8,23.2,29.98,NE,55,1.0,3.0,76,0.00,,,0.00,meteohub,2013-02-26 17:34:00,
2013-02-26 10:37:00,30.0,23.4,29.98,NE,55,0.0,2.0,76,0.00,,,0.00,meteohub,2013-02-26 17:37:00,
2013-02-26 10:38:00,30.0,23.4,29.98,NE,55,0.0,2.0,76,0.00,,,0.00,meteohub,2013-02-26 17:38:00,
2013-02-26 10:39:00,30.0,23.4,29.98,NE,55,0.0,2.0,76,0.00,,,0.00,meteohub,2013-02-26 17:39:00,
2013-02-26 10:40:00,30.0,23.4,29.98,NE,55,1.0,2.0,76,0.00,,,0.00,meteohub,2013-02-26 17:40:00,
2013-02-26 10:42:00,30.2,23.9,29.98,NE,49,0.0,2.0,77,0.00,,,0.00,meteohub,2013-02-26 17:42:00,
2013-02-26 10:44:00,30.2,23.9,29.98,NE,49,0.0,2.0,77,0.00,,,0.00,meteohub,2013-02-26 17:44:00,
2013-02-26 10:45:00,30.2,23.9,29.98,NE,49,2.0,2.0,77,0.00,,,0.00,meteohub,2013-02-26 17:45:00,
2013-02-26 10:46:00,30.2,23.9,29.98,NE,49,0.0,3.0,77,0.00,,,0.00,meteohub,2013-02-26 17:46:00,
2013-02-26 10:47:00,30.2,23.9,29.98,NE,39,3.0,3.0,77,0.00,,,0.00,meteohub,2013-02-26 17:47:00,
2013-02-26 10:51:00,30.0,23.7,29.98,North,350,1.0,3.0,77,0.00,,,0.00,meteohub,2013-02-26 17:51:00,
2013-02-26 10:52:00,30.0,23.7,29.98,North,350,0.0,3.0,77,0.00,,,0.00,meteohub,2013-02-26 17:52:00,
2013-02-26 10:53:00,30.0,23.7,29.98,North,350,1.0,3.0,77,0.00,,,0.00,meteohub,2013-02-26 17:53:00,
2013-02-26 10:56:00,30.0,23.7,29.98,North,350,0.0,3.0,77,0.00,,,0.00,meteohub,2013-02-26 17:56:00,
2013-02-26 10:58:00,30.0,23.7,29.98,North,350,1.0,3.0,77,0.00,,,0.00,meteohub,2013-02-26 17:58:00,
2013-02-26 11:00:00,30.0,24.1,29.99,North,350,1.0,3.0,78,0.00,,,0.00,meteohub,2013-02-26 18:00:00,
2013-02-26 11:03:00,30.0,24.1,29.99,North,350,0.0,3.0,78,0.00,,,0.00,meteohub,2013-02-26 18:03:00,
2013-02-26 11:04:00,30.2,24.3,29.99,North,350,2.0,3.0,78,0.00,,,0.00,meteohub,2013-02-26 18:04:00,
2013-02-26 11:06:00,30.2,24.3,29.99,North,350,0.0,3.0,78,0.00,,,0.00,meteohub,2013-02-26 18:06:00,
2013-02-26 11:08:00,30.4,24.3,29.99,North,350,0.0,3.0,78,0.00,,,0.00,meteohub,2013-02-26 18:08:00,
2013-02-26 11:09:00,30.4,24.3,29.99,North,350,0.0,3.0,78,0.00,,,0.00,meteohub,2013-02-26 18:09:00,
2013-02-26 11:12:00,30.4,24.1,29.99,North,349,2.0,2.0,77,0.00,,,0.00,meteohub,2013-02-26 18:12:00,
2013-02-26 11:14:00,30.4,24.3,29.99,North,349,2.0,2.0,78,0.00,,,0.00,meteohub,2013-02-26 18:14:00,
2013-02-26 11:15:00,30.4,24.3,29.99,North,349,0.0,2.0,78,0.00,,,0.00,meteohub,2013-02-26 18:15:00,
2013-02-26 11:18:00,30.2,24.3,29.99,North,349,2.0,4.0,78,0.00,,,0.00,meteohub,2013-02-26 18:18:00,
2013-02-26 11:19:00,30.2,24.3,29.99,North,349,1.0,4.0,78,0.00,,,0.00,meteohub,2013-02-26 18:19:00,
2013-02-26 11:20:00,30.0,24.1,29.99,North,349,2.0,4.0,78,0.00,,,0.00,meteohub,2013-02-26 18:20:00,
2013-02-26 11:23:00,30.0,24.3,29.99,North,349,2.0,4.0,79,0.00,,,0.00,meteohub,2013-02-26 18:23:00,
2013-02-26 11:25:00,30.2,24.4,29.99,North,349,0.0,4.0,79,0.00,,,0.00,meteohub,2013-02-26 18:25:00,
2013-02-26 11:26:00,30.2,24.4,29.99,North,349,3.0,4.0,79,0.00,,,0.00,meteohub,2013-02-26 18:26:00,
2013-02-26 11:29:00,30.4,24.6,29.99,North,349,1.0,4.0,79,0.00,,,0.00,meteohub,2013-02-26 18:29:00,
2013-02-26 11:31:00,30.6,24.8,29.99,North,349,0.0,4.0,79,0.01,,,0.01,meteohub,2013-02-26 18:31:00,
2013-02-26 11:34:00,30.7,25.0,29.99,North,349,2.0,3.0,79,0.01,,,0.01,meteohub,2013-02-26 18:34:00,
2013-02-26 11:37:00,30.7,24.6,29.99,North,349,0.0,3.0,78,0.01,,,0.01,meteohub,2013-02-26 18:37:00,
2013-02-26 11:39:00,30.6,24.3,29.99,North,349,1.0,3.0,77,0.01,,,0.01,meteohub,2013-02-26 18:39:00,
2013-02-26 11:40:00,30.6,24.3,29.99,North,349,0.0,3.0,77,0.01,,,0.01,meteohub,2013-02-26 18:40:00,
2013-02-26 11:42:00,30.6,23.9,29.99,North,349,0.0,3.0,76,0.01,,,0.01,meteohub,2013-02-26 18:42:00,
2013-02-26 11:43:00,30.6,23.9,29.99,North,349,0.0,3.0,76,0.01,,,0.01,meteohub,2013-02-26 18:43:00,
2013-02-26 11:44:00,30.6,23.9,29.99,North,349,0.0,3.0,76,0.01,,,0.01,meteohub,2013-02-26 18:44:00,
2013-02-26 11:47:00,30.6,24.3,29.99,North,349,0.0,3.0,77,0.01,,,0.01,meteohub,2013-02-26 18:47:00,
2013-02-26 11:49:00,30.6,24.4,29.99,North,349,0.0,3.0,78,0.01,,,0.01,meteohub,2013-02-26 18:49:00,
2013-02-26 11:52:00,30.6,24.4,29.99,North,349,1.0,2.0,78,0.01,,,0.01,meteohub,2013-02-26 18:52:00,
2013-02-26 11:54:00,30.7,24.4,29.99,North,349,0.0,2.0,77,0.01,,,0.01,meteohub,2013-02-26 18:54:00,
2013-02-26 11:55:00,30.7,24.4,29.98,North,349,0.0,2.0,77,0.01,,,0.01,meteohub,2013-02-26 18:55:00,
2013-02-26 11:57:00,30.9,24.8,29.98,North,349,0.0,1.0,78,0.01,,,0.01,meteohub,2013-02-26 18:57:00,
2013-02-26 11:58:00,30.9,24.8,29.99,North,349,2.0,2.0,78,0.01,,,0.01,meteohub,2013-02-26 18:58:00,
2013-02-26 11:59:00,30.9,24.8,29.98,North,349,1.0,1.0,78,0.01,,,0.01,meteohub,2013-02-26 18:59:00,
2013-02-26 12:03:00,31.3,25.0,29.98,North,349,0.0,3.0,77,0.01,,,0.01,meteohub,2013-02-26 19:03:00,
2013-02-26 12:04:00,30.9,24.3,29.98,North,349,0.0,3.0,76,0.01,,,0.01,meteohub,2013-02-26 19:04:00,
2013-02-26 12:09:00,30.6,24.3,29.98,North,349,0.0,3.0,77,0.02,,,0.02,meteohub,2013-02-26 19:09:00,
2013-02-26 12:10:00,30.6,24.3,29.98,North,349,0.0,3.0,77,0.02,,,0.02,meteohub,2013-02-26 19:10:00,
2013-02-26 12:11:00,30.6,24.4,29.98,North,349,1.0,3.0,78,0.02,,,0.02,meteohub,2013-02-26 19:11:00,
2013-02-26 12:14:00,30.7,24.6,29.98,North,349,0.0,3.0,78,0.02,,,0.02,meteohub,2013-02-26 19:14:00,
2013-02-26 12:15:00,30.7,24.6,29.98,North,349,0.0,3.0,78,0.02,,,0.02,meteohub,2013-02-26 19:15:00,
2013-02-26 12:19:00,30.7,25.0,29.97,WSW,250,3.0,3.0,79,0.02,,,0.02,meteohub,2013-02-26 19:19:00,
2013-02-26 12:20:00,30.7,25.0,29.97,SW,236,3.0,3.0,79,0.02,,,0.02,meteohub,2013-02-26 19:20:00,
2013-02-26 12:21:00,30.9,25.2,29.97,WSW,250,5.0,5.0,79,0.02,,,0.02,meteohub,2013-02-26 19:21:00,
2013-02-26 12:25:00,31.1,25.0,29.97,SW,231,6.0,6.0,78,0.02,,,0.02,meteohub,2013-02-26 19:25:00,
2013-02-26 12:26:00,31.1,25.0,29.97,WSW,248,3.0,4.0,78,0.01,,,0.02,meteohub,2013-02-26 19:26:00,
2013-02-26 12:30:00,31.5,25.3,29.97,SW,223,2.0,9.0,78,0.01,,,0.02,meteohub,2013-02-26 19:30:00,
2013-02-26 12:32:00,31.5,25.3,29.97,SW,230,5.0,9.0,78,0.01,,,0.02,meteohub,2013-02-26 19:32:00,
2013-02-26 12:33:00,31.5,25.3,29.97,SW,234,3.0,9.0,78,0.01,,,0.02,meteohub,2013-02-26 19:33:00,
2013-02-26 12:34:00,31.3,25.0,29.97,West,269,1.0,9.0,77,0.01,,,0.02,meteohub,2013-02-26 19:34:00,
2013-02-26 12:36:00,31.3,25.0,29.97,West,269,3.0,9.0,77,0.01,,,0.02,meteohub,2013-02-26 19:36:00,
2013-02-26 12:39:00,31.5,25.2,29.97,WSW,245,5.0,9.0,77,0.01,,,0.02,meteohub,2013-02-26 19:39:00,
2013-02-26 12:40:00,31.5,25.3,29.97,WSW,251,3.0,9.0,78,0.01,,,0.02,meteohub,2013-02-26 19:40:00,
2013-02-26 12:41:00,31.6,25.5,29.97,SW,230,5.0,8.0,78,0.01,,,0.02,meteohub,2013-02-26 19:41:00,
2013-02-26 12:45:00,31.3,24.6,29.97,WSW,257,3.0,8.0,76,0.01,,,0.02,meteohub,2013-02-26 19:45:00,
2013-02-26 12:47:00,31.1,24.1,29.97,SW,236,3.0,7.0,75,0.01,,,0.02,meteohub,2013-02-26 19:47:00,
2013-02-26 12:50:00,31.3,24.3,29.97,SW,234,4.0,7.0,75,0.01,,,0.02,meteohub,2013-02-26 19:50:00,
2013-02-26 12:51:00,31.1,24.1,29.97,SW,234,2.0,7.0,75,0.01,,,0.02,meteohub,2013-02-26 19:51:00,
2013-02-26 12:55:00,30.9,24.3,29.97,West,271,4.0,7.0,76,0.01,,,0.02,meteohub,2013-02-26 19:55:00,
2013-02-26 12:56:00,31.3,24.6,29.97,West,271,3.0,7.0,76,0.01,,,0.02,meteohub,2013-02-26 19:56:00,
2013-02-26 12:57:00,31.5,24.8,29.97,West,262,2.0,7.0,76,0.01,,,0.02,meteohub,2013-02-26 19:57:00,
2013-02-26 13:00:00,31.5,24.4,29.97,West,263,3.0,7.0,75,0.01,,,0.02,meteohub,2013-02-26 20:00:00,
2013-02-26 13:02:00,31.5,24.4,29.97,West,263,0.0,7.0,75,0.01,,,0.02,meteohub,2013-02-26 20:02:00,
2013-02-26 13:05:00,31.6,24.6,29.97,West,263,2.0,7.0,75,0.01,,,0.02,meteohub,2013-02-26 20:05:00,
2013-02-26 13:06:00,31.8,24.8,29.97,West,281,2.0,5.0,75,0.00,,,0.02,meteohub,2013-02-26 20:06:00,
2013-02-26 13:08:00,32.2,25.2,29.97,West,281,0.0,5.0,75,0.00,,,0.02,meteohub,2013-02-26 20:08:00,
2013-02-26 13:10:00,32.4,25.0,29.97,West,281,0.0,5.0,74,0.00,,,0.02,meteohub,2013-02-26 20:10:00,
2013-02-26 13:11:00,32.2,24.4,29.97,West,281,0.0,5.0,73,0.00,,,0.02,meteohub,2013-02-26 20:11:00,
2013-02-26 13:13:00,31.8,24.1,29.97,West,281,0.0,5.0,73,0.00,,,0.02,meteohub,2013-02-26 20:13:00,
2013-02-26 13:14:00,31.8,24.1,29.97,West,281,1.0,5.0,73,0.00,,,0.02,meteohub,2013-02-26 20:14:00,
2013-02-26 13:19:00,32.2,24.4,29.98,West,281,2.0,4.0,73,0.00,,,0.02,meteohub,2013-02-26 20:19:00,
2013-02-26 13:20:00,32.4,24.6,29.98,West,281,2.0,4.0,73,0.00,,,0.02,meteohub,2013-02-26 20:20:00,
2013-02-26 13:25:00,32.5,24.4,29.98,West,281,2.0,4.0,72,0.00,,,0.02,meteohub,2013-02-26 20:25:00,
2013-02-26 13:28:00,32.5,24.4,29.98,West,281,0.0,3.0,72,0.00,,,0.02,meteohub,2013-02-26 20:28:00,
2013-02-26 13:29:00,32.5,24.4,29.98,West,281,0.0,3.0,72,0.00,,,0.02,meteohub,2013-02-26 20:29:00,
2013-02-26 13:31:00,32.7,24.6,29.98,West,281,1.0,3.0,72,0.00,,,0.02,meteohub,2013-02-26 20:31:00,
2013-02-26 13:32:00,32.7,24.4,29.98,West,281,0.0,4.0,71,0.00,,,0.02,meteohub,2013-02-26 20:32:00,
2013-02-26 13:33:00,32.7,24.4,29.98,West,281,0.0,4.0,71,0.00,,,0.02,meteohub,2013-02-26 20:33:00,
2013-02-26 13:35:00,32.9,24.6,29.98,WNW,286,0.0,4.0,71,0.00,,,0.02,meteohub,2013-02-26 20:35:00,
2013-02-26 13:37:00,32.9,24.6,29.98,WNW,286,0.0,4.0,71,0.00,,,0.02,meteohub,2013-02-26 20:37:00,
2013-02-26 13:38:00,33.1,24.6,29.98,WNW,286,0.0,4.0,71,0.00,,,0.02,meteohub,2013-02-26 20:38:00,
2013-02-26 13:40:00,33.1,24.4,29.98,WNW,286,0.0,4.0,70,0.00,,,0.02,meteohub,2013-02-26 20:40:00,
2013-02-26 13:41:00,32.9,24.3,29.98,WNW,286,0.0,3.0,70,0.00,,,0.02,meteohub,2013-02-26 20:41:00,
2013-02-26 13:43:00,33.1,24.6,29.98,WNW,286,0.0,3.0,71,0.00,,,0.02,meteohub,2013-02-26 20:43:00,
2013-02-26 13:46:00,33.4,25.0,29.98,North,355,4.0,4.0,71,0.00,,,0.02,meteohub,2013-02-26 20:46:00,
2013-02-26 13:47:00,33.6,25.2,29.98,North,351,0.0,4.0,71,0.00,,,0.02,meteohub,2013-02-26 20:47:00,
2013-02-26 13:51:00,34.3,25.5,29.98,NNW,347,1.0,4.0,70,0.00,,,0.02,meteohub,2013-02-26 20:51:00,
2013-02-26 13:52:00,34.3,25.2,29.98,WNW,288,5.0,5.0,69,0.00,,,0.02,meteohub,2013-02-26 20:52:00,
2013-02-26 13:53:00,34.5,25.3,29.98,WSW,254,2.0,5.0,69,0.00,,,0.02,meteohub,2013-02-26 20:53:00,
2013-02-26 13:56:00,34.5,25.0,29.99,West,262,3.0,6.0,68,0.00,,,0.02,meteohub,2013-02-26 20:56:00,
2013-02-26 13:57:00,34.5,25.0,29.99,West,273,3.0,6.0,68,0.00,,,0.02,meteohub,2013-02-26 20:57:00,
2013-02-26 13:58:00,34.5,25.3,29.98,West,273,0.0,6.0,69,0.00,,,0.02,meteohub,2013-02-26 20:58:00,
2013-02-26 14:00:00,34.5,25.0,29.99,West,273,0.0,6.0,68,0.00,,,0.02,meteohub,2013-02-26 21:00:00,
2013-02-26 14:01:00,34.5,25.0,29.99,West,273,0.0,6.0,68,0.00,,,0.02,meteohub,2013-02-26 21:01:00,
2013-02-26 14:03:00,34.5,25.0,29.99,West,273,0.0,6.0,68,0.00,,,0.02,meteohub,2013-02-26 21:03:00,
2013-02-26 14:06:00,34.5,25.0,29.99,ESE,108,5.0,6.0,68,0.00,,,0.02,meteohub,2013-02-26 21:06:00,
2013-02-26 14:07:00,34.3,24.8,29.99,East,79,13.0,13.0,68,0.00,,,0.02,meteohub,2013-02-26 21:07:00,
2013-02-26 14:09:00,33.8,24.1,29.99,NE,45,3.0,6.0,67,0.00,,,0.02,meteohub,2013-02-26 21:09:00,
2013-02-26 14:11:00,33.3,24.3,29.99,NNE,28,8.0,14.0,69,0.00,,,0.02,meteohub,2013-02-26 21:11:00,
2013-02-26 14:12:00,33.3,24.3,29.99,North,11,6.0,14.0,69,0.00,,,0.02,meteohub,2013-02-26 21:12:00,
2013-02-26 14:14:00,33.1,24.6,30.00,NE,39,3.0,14.0,71,0.00,,,0.02,meteohub,2013-02-26 21:14:00,
2013-02-26 14:15:00,32.9,24.6,30.00,NNE,32,3.0,14.0,71,0.00,,,0.02,meteohub,2013-02-26 21:15:00,
2013-02-26 14:16:00,32.7,24.1,30.00,East,80,4.0,14.0,70,0.00,,,0.02,meteohub,2013-02-26 21:16:00,
2013-02-26 14:17:00,32.7,24.1,30.00,NE,46,11.0,14.0,70,0.00,,,0.02,meteohub,2013-02-26 21:17:00,
2013-02-26 14:21:00,32.5,23.9,30.00,East,90,8.0,14.0,70,0.00,,,0.02,meteohub,2013-02-26 21:21:00,
2013-02-26 14:23:00,32.0,23.0,30.00,East,93,9.0,14.0,69,0.00,,,0.02,meteohub,2013-02-26 21:23:00,
2013-02-26 14:26:00,31.5,22.8,30.00,ENE,69,10.0,13.0,70,0.00,,,0.02,meteohub,2013-02-26 21:26:00,
2013-02-26 14:28:00,31.5,23.2,30.00,ENE,64,7.0,13.0,71,0.00,,,0.02,meteohub,2013-02-26 21:28:00,
2013-02-26 14:31:00,31.5,23.5,30.01,NE,43,4.0,13.0,72,0.00,,,0.02,meteohub,2013-02-26 21:31:00,
2013-02-26 14:32:00,31.3,23.0,30.01,NE,53,7.0,15.0,71,0.00,,,0.02,meteohub,2013-02-26 21:32:00,
2013-02-26 14:33:00,31.3,23.0,30.01,NNE,22,10.0,15.0,71,0.00,,,0.02,meteohub,2013-02-26 21:33:00,
2013-02-26 14:34:00,31.3,23.0,30.01,East,86,7.0,15.0,71,0.00,,,0.02,meteohub,2013-02-26 21:34:00,
2013-02-26 14:36:00,31.1,23.2,30.01,NE,38,7.0,15.0,72,0.00,,,0.02,meteohub,2013-02-26 21:36:00,
2013-02-26 14:38:00,31.3,23.7,30.01,NE,38,7.0,15.0,73,0.00,,,0.02,meteohub,2013-02-26 21:38:00,
2013-02-26 14:39:00,31.3,23.9,30.01,NE,44,9.0,15.0,74,0.00,,,0.02,meteohub,2013-02-26 21:39:00,
2013-02-26 14:42:00,31.3,23.9,30.02,ENE,75,5.0,12.0,74,0.00,,,0.02,meteohub,2013-02-26 21:42:00,
2013-02-26 14:43:00,31.3,23.9,30.02,ENE,63,6.0,12.0,74,0.00,,,0.02,meteohub,2013-02-26 21:43:00,
2013-02-26 14:44:00,31.3,23.9,30.02,ENE,71,8.0,12.0,74,0.00,,,0.02,meteohub,2013-02-26 21:44:00,
2013-02-26 14:45:00,31.3,24.3,30.02,East,82,5.0,12.0,75,0.00,,,0.02,meteohub,2013-02-26 21:45:00,
2013-02-26 14:48:00,30.9,23.9,30.02,NE,34,6.0,11.0,75,0.00,,,0.02,meteohub,2013-02-26 21:48:00,
2013-02-26 14:49:00,30.9,23.9,30.02,NE,41,8.0,11.0,75,0.00,,,0.02,meteohub,2013-02-26 21:49:00,
2013-02-26 14:50:00,30.7,24.1,30.03,NE,46,5.0,11.0,76,0.00,,,0.02,meteohub,2013-02-26 21:50:00,
2013-02-26 14:54:00,30.7,24.4,30.03,NE,48,6.0,13.0,77,0.00,,,0.02,meteohub,2013-02-26 21:54:00,
2013-02-26 14:55:00,30.7,24.4,30.03,NE,53,6.0,13.0,77,0.00,,,0.02,meteohub,2013-02-26 21:55:00,
2013-02-26 14:56:00,30.7,24.4,30.03,NNE,28,9.0,13.0,77,0.00,,,0.02,meteohub,2013-02-26 21:56:00,
2013-02-26 14:59:00,30.7,24.6,30.03,NNE,28,11.0,13.0,78,0.00,,,0.02,meteohub,2013-02-26 21:59:00,
2013-02-26 15:00:00,30.7,24.6,30.03,NNE,31,7.0,13.0,78,0.00,,,0.02,meteohub,2013-02-26 22:00:00,
2013-02-26 15:01:00,30.6,24.4,30.03,NNE,21,9.0,13.0,78,0.00,,,0.02,meteohub,2013-02-26 22:01:00,
2013-02-26 15:04:00,30.6,24.8,30.04,NNE,17,5.0,13.0,79,0.00,,,0.02,meteohub,2013-02-26 22:04:00,
2013-02-26 15:05:00,30.6,24.8,30.03,NNE,31,4.0,13.0,79,0.00,,,0.02,meteohub,2013-02-26 22:05:00,
2013-02-26 15:06:00,30.7,25.0,30.03,NNE,33,6.0,13.0,79,0.00,,,0.02,meteohub,2013-02-26 22:06:00,
2013-02-26 15:09:00,30.7,25.0,30.04,North,9,5.0,13.0,79,0.00,,,0.02,meteohub,2013-02-26 22:09:00,
2013-02-26 15:10:00,30.6,25.2,30.04,NNE,30,9.0,13.0,80,0.00,,,0.02,meteohub,2013-02-26 22:10:00,
2013-02-26 15:14:00,30.4,25.0,30.04,North,9,6.0,12.0,80,0.00,,,0.02,meteohub,2013-02-26 22:14:00,
2013-02-26 15:15:00,30.2,24.8,30.04,North,5,5.0,12.0,80,0.00,,,0.02,meteohub,2013-02-26 22:15:00,
2013-02-26 15:16:00,30.2,24.8,30.04,North,5,4.0,12.0,80,0.00,,,0.02,meteohub,2013-02-26 22:16:00,
2013-02-26 15:19:00,30.2,24.8,30.04,North,11,7.0,12.0,80,0.00,,,0.02,meteohub,2013-02-26 22:19:00,
2013-02-26 15:20:00,30.2,24.8,30.04,North,0,6.0,12.0,80,0.00,,,0.02,meteohub,2013-02-26 22:20:00,
2013-02-26 15:21:00,30.2,24.8,30.04,NNE,26,8.0,12.0,80,0.00,,,0.02,meteohub,2013-02-26 22:21:00,
2013-02-26 15:24:00,30.2,24.8,30.04,NNE,17,10.0,12.0,80,0.00,,,0.02,meteohub,2013-02-26 22:24:00,
2013-02-26 15:26:00,30.4,25.3,30.04,North,5,6.0,11.0,81,0.00,,,0.02,meteohub,2013-02-26 22:26:00,
2013-02-26 15:27:00,30.4,25.3,30.04,North,5,4.0,11.0,81,0.00,,,0.02,meteohub,2013-02-26 22:27:00,
2013-02-26 15:32:00,30.4,25.0,30.05,NNW,340,7.0,11.0,80,0.00,,,0.02,meteohub,2013-02-26 22:32:00,
2013-02-26 15:35:00,30.7,25.3,30.05,NNW,348,5.0,11.0,80,0.00,,,0.02,meteohub,2013-02-26 22:35:00,
2013-02-26 15:37:00,30.9,25.2,30.04,NNW,338,7.0,11.0,79,0.00,,,0.02,meteohub,2013-02-26 22:37:00,
2013-02-26 15:38:00,30.9,25.2,30.05,NNW,346,4.0,11.0,79,0.00,,,0.02,meteohub,2013-02-26 22:38:00,
2013-02-26 15:41:00,31.3,25.2,30.05,North,0,8.0,10.0,78,0.00,,,0.02,meteohub,2013-02-26 22:41:00,
2013-02-26 15:43:00,31.3,25.2,30.04,NW,315,3.0,10.0,78,0.00,,,0.02,meteohub,2013-02-26 22:43:00,
2013-02-26 15:44:00,31.3,25.2,30.05,NW,316,3.0,10.0,78,0.00,,,0.02,meteohub,2013-02-26 22:44:00,
2013-02-26 15:46:00,31.5,25.3,30.05,North,0,3.0,10.0,78,0.00,,,0.02,meteohub,2013-02-26 22:46:00,
2013-02-26 15:48:00,31.5,25.2,30.05,WNW,292,6.0,10.0,77,0.00,,,0.02,meteohub,2013-02-26 22:48:00,
2013-02-26 15:50:00,31.6,25.3,30.05,NW,307,2.0,10.0,77,0.00,,,0.02,meteohub,2013-02-26 22:50:00,
2013-02-26 15:52:00,31.8,25.5,30.05,NNW,336,6.0,10.0,77,0.00,,,0.02,meteohub,2013-02-26 22:52:00,
2013-02-26 15:53:00,31.8,25.2,30.05,North,5,4.0,10.0,76,0.00,,,0.02,meteohub,2013-02-26 22:53:00,
2013-02-26 15:55:00,31.8,25.2,30.05,North,0,3.0,10.0,76,0.00,,,0.02,meteohub,2013-02-26 22:55:00,
2013-02-26 15:58:00,31.6,24.6,30.06,North,0,9.0,10.0,75,0.00,,,0.02,meteohub,2013-02-26 22:58:00,
2013-02-26 16:00:00,31.6,24.3,30.06,North,350,8.0,10.0,74,0.00,,,0.02,meteohub,2013-02-26 23:00:00,
2013-02-26 16:01:00,31.6,24.3,30.06,North,355,11.0,12.0,74,0.00,,,0.02,meteohub,2013-02-26 23:01:00,
2013-02-26 16:05:00,31.5,23.2,30.06,North,5,14.0,14.0,71,0.00,,,0.02,meteohub,2013-02-26 23:05:00,
2013-02-26 16:06:00,31.5,22.8,30.06,North,355,19.0,19.0,70,0.00,,,0.02,meteohub,2013-02-26 23:06:00,
2013-02-26 16:07:00,31.5,22.5,30.06,North,5,10.0,16.0,69,0.00,,,0.02,meteohub,2013-02-26 23:07:00,
2013-02-26 16:10:00,31.5,22.5,30.06,NNE,26,22.0,22.0,69,0.00,,,0.02,meteohub,2013-02-26 23:10:00,
2013-02-26 16:11:00,31.3,20.8,30.06,North,9,13.0,29.0,65,0.00,,,0.02,meteohub,2013-02-26 23:11:00,
2013-02-26 16:12:00,31.5,21.0,30.06,North,355,13.0,29.0,65,0.00,,,0.02,meteohub,2013-02-26 23:12:00,
2013-02-26 16:15:00,31.5,21.0,30.06,NNW,342,8.0,29.0,65,0.00,,,0.02,meteohub,2013-02-26 23:15:00,
2013-02-26 16:16:00,31.5,21.0,30.06,North,5,10.0,29.0,65,0.00,,,0.02,meteohub,2013-02-26 23:16:00,
2013-02-26 16:17:00,31.5,20.7,30.07,NNE,15,15.0,29.0,64,0.00,,,0.02,meteohub,2013-02-26 23:17:00,
2013-02-26 16:18:00,31.5,20.7,30.07,NNE,27,15.0,29.0,64,0.00,,,0.02,meteohub,2013-02-26 23:18:00,
2013-02-26 16:22:00,31.5,21.0,30.07,NNW,346,6.0,29.0,65,0.00,,,0.02,meteohub,2013-02-26 23:22:00,
2013-02-26 16:23:00,31.5,21.4,30.07,NNW,338,11.0,29.0,66,0.00,,,0.02,meteohub,2013-02-26 23:23:00,
2013-02-26 16:24:00,31.5,21.4,30.07,NNE,26,13.0,29.0,66,0.00,,,0.02,meteohub,2013-02-26 23:24:00,
2013-02-26 16:28:00,31.5,21.0,30.07,North,355,9.0,24.0,65,0.00,,,0.02,meteohub,2013-02-26 23:28:00,
2013-02-26 16:29:00,31.5,21.0,30.07,North,5,14.0,24.0,65,0.00,,,0.02,meteohub,2013-02-26 23:29:00,
2013-02-26 16:30:00,31.5,21.0,30.07,North,5,12.0,24.0,65,0.00,,,0.02,meteohub,2013-02-26 23:30:00,
2013-02-26 16:33:00,31.3,20.8,30.08,North,0,7.0,20.0,65,0.00,,,0.02,meteohub,2013-02-26 23:33:00,
2013-02-26 16:36:00,31.3,20.8,30.08,NNE,16,14.0,20.0,65,0.00,,,0.02,meteohub,2013-02-26 23:36:00,
2013-02-26 16:37:00,31.3,20.8,30.08,North,11,10.0,20.0,65,0.00,,,0.02,meteohub,2013-02-26 23:37:00,
2013-02-26 16:38:00,31.3,20.8,30.08,NNE,17,10.0,20.0,65,0.00,,,0.02,meteohub,2013-02-26 23:38:00,
2013-02-26 16:39:00,31.3,20.8,30.08,NE,40,8.0,20.0,65,0.00,,,0.02,meteohub,2013-02-26 23:39:00,
2013-02-26 16:42:00,31.1,20.7,30.08,North,0,10.0,22.0,65,0.00,,,0.02,meteohub,2013-02-26 23:42:00,
2013-02-26 16:43:00,31.1,20.7,30.08,NNE,29,15.0,22.0,65,0.00,,,0.02,meteohub,2013-02-26 23:43:00,
2013-02-26 16:44:00,31.1,21.0,30.08,North,11,14.0,22.0,66,0.00,,,0.02,meteohub,2013-02-26 23:44:00,
2013-02-26 16:47:00,30.9,20.8,30.08,NE,42,13.0,22.0,66,0.00,,,0.02,meteohub,2013-02-26 23:47:00,
2013-02-26 16:49:00,30.9,20.8,30.09,NNE,20,9.0,22.0,66,0.00,,,0.02,meteohub,2013-02-26 23:49:00,
2013-02-26 16:52:00,30.9,20.8,30.09,NNE,23,9.0,17.0,66,0.00,,,0.02,meteohub,2013-02-26 23:52:00,
2013-02-26 16:53:00,30.7,20.7,30.08,NE,34,16.0,17.0,66,0.00,,,0.02,meteohub,2013-02-26 23:53:00,
2013-02-26 16:55:00,30.7,20.7,30.08,NNE,29,12.0,17.0,66,0.00,,,0.02,meteohub,2013-02-26 23:55:00,
2013-02-26 16:58:00,30.7,20.7,30.09,NNE,26,11.0,23.0,66,0.00,,,0.02,meteohub,2013-02-26 23:58:00,
2013-02-26 16:59:00,30.7,20.7,30.09,NNE,17,13.0,23.0,66,0.00,,,0.02,meteohub,2013-02-26 23:59:00,
2013-02-26 17:00:00,30.6,20.5,30.09,NNE,17,13.0,23.0,66,0.00,,,0.02,meteohub,2013-02-27 00:00:00,
2013-02-26 17:02:00,30.6,20.5,30.09,NNE,24,16.0,23.0,66,0.00,,,0.02,meteohub,2013-02-27 00:02:00,
2013-02-26 17:04:00,30.6,20.5,30.09,North,9,14.0,23.0,66,0.00,,,0.02,meteohub,2013-02-27 00:04:00,
2013-02-26 17:07:00,30.6,20.5,30.09,NNE,27,17.0,23.0,66,0.00,,,0.02,meteohub,2013-02-27 00:07:00,
2013-02-26 17:09:00,30.4,20.7,30.10,North,5,12.0,23.0,67,0.00,,,0.02,meteohub,2013-02-27 00:09:00,
2013-02-26 17:11:00,30.4,20.7,30.10,North,9,18.0,23.0,67,0.00,,,0.02,meteohub,2013-02-27 00:11:00,
2013-02-26 17:12:00,30.4,20.7,30.10,NNE,25,19.0,23.0,67,0.00,,,0.02,meteohub,2013-02-27 00:12:00,
2013-02-26 17:14:00,30.2,20.5,30.10,NNE,24,18.0,23.0,67,0.00,,,0.02,meteohub,2013-02-27 00:14:00,
2013-02-26 17:17:00,30.0,20.7,30.10,NNE,15,10.0,25.0,68,0.00,,,0.02,meteohub,2013-02-27 00:17:00,
2013-02-26 17:19:00,30.0,20.7,30.10,NNE,16,11.0,25.0,68,0.00,,,0.02,meteohub,2013-02-27 00:19:00,
2013-02-26 17:21:00,30.0,21.0,30.10,North,0,16.0,25.0,69,0.00,,,0.02,meteohub,2013-02-27 00:21:00,
2013-02-26 17:22:00,29.8,20.8,30.10,NNE,26,10.0,25.0,69,0.00,,,0.02,meteohub,2013-02-27 00:22:00,
2013-02-26 17:24:00,29.8,20.8,30.10,NE,40,12.0,25.0,69,0.00,,,0.02,meteohub,2013-02-27 00:24:00,
2013-02-26 17:25:00,29.8,20.8,30.10,NE,42,11.0,25.0,69,0.00,,,0.02,meteohub,2013-02-27 00:25:00,
2013-02-26 17:26:00,29.8,20.8,30.10,NNE,19,9.0,25.0,69,0.00,,,0.02,meteohub,2013-02-27 00:26:00,
2013-02-26 17:29:00,29.8,20.8,30.10,NE,45,7.0,25.0,69,0.00,,,0.02,meteohub,2013-02-27 00:29:00,
2013-02-26 17:31:00,29.7,20.7,30.10,NNE,24,9.0,22.0,69,0.00,,,0.02,meteohub,2013-02-27 00:31:00,
2013-02-26 17:35:00,29.7,20.7,30.11,NE,38,11.0,22.0,69,0.00,,,0.02,meteohub,2013-02-27 00:35:00,
2013-02-26 17:36:00,29.7,20.7,30.11,NNE,20,15.0,23.0,69,0.00,,,0.02,meteohub,2013-02-27 00:36:00,
2013-02-26 17:37:00,29.7,20.7,30.11,NNE,13,19.0,23.0,69,0.00,,,0.02,meteohub,2013-02-27 00:37:00,
2013-02-26 17:38:00,29.7,20.7,30.11,NNE,26,18.0,23.0,69,0.00,,,0.02,meteohub,2013-02-27 00:38:00,
2013-02-26 17:41:00,29.7,20.7,30.11,NNE,27,19.0,23.0,69,0.00,,,0.02,meteohub,2013-02-27 00:41:00,
2013-02-26 17:43:00,29.7,20.5,30.11,NNE,17,14.0,23.0,68,0.00,,,0.02,meteohub,2013-02-27 00:43:00,
2013-02-26 17:46:00,29.7,20.5,30.12,NNE,25,10.0,23.0,68,0.00,,,0.02,meteohub,2013-02-27 00:46:00,
2013-02-26 17:47:00,29.7,20.5,30.12,NE,39,17.0,22.0,68,0.00,,,0.02,meteohub,2013-02-27 00:47:00,
2013-02-26 17:48:00,29.7,20.5,30.12,NNE,19,10.0,22.0,68,0.00,,,0.02,meteohub,2013-02-27 00:48:00,
2013-02-26 17:51:00,29.7,20.5,30.12,NNE,22,16.0,22.0,68,0.00,,,0.02,meteohub,2013-02-27 00:51:00,
2013-02-26 17:53:00,29.7,20.5,30.12,NNE,32,13.0,22.0,68,0.00,,,0.02,meteohub,2013-02-27 00:53:00,
2013-02-26 17:54:00,29.7,20.5,30.12,NNE,15,18.0,22.0,68,0.00,,,0.02,meteohub,2013-02-27 00:54:00,
2013-02-26 17:59:00,29.5,20.3,30.12,NNE,13,15.0,22.0,68,0.00,,,0.02,meteohub,2013-02-27 00:59:00,
2013-02-26 18:00:00,29.5,19.9,30.12,North,0,11.0,22.0,67,0.00,,,0.02,meteohub,2013-02-27 01:00:00,
2013-02-26 18:01:00,29.5,19.9,30.12,North,9,14.0,20.0,67,0.00,,,0.02,meteohub,2013-02-27 01:01:00,
2013-02-26 18:04:00,29.5,20.3,30.13,NE,38,14.0,20.0,68,0.00,,,0.02,meteohub,2013-02-27 01:04:00,
2013-02-26 18:05:00,29.5,20.3,30.13,NNE,30,17.0,20.0,68,0.00,,,0.02,meteohub,2013-02-27 01:05:00,
2013-02-26 18:07:00,29.5,20.3,30.13,NNE,17,11.0,26.0,68,0.00,,,0.02,meteohub,2013-02-27 01:07:00,
2013-02-26 18:08:00,29.3,20.1,30.13,NE,34,22.0,26.0,68,0.00,,,0.02,meteohub,2013-02-27 01:08:00,
2013-02-26 18:11:00,29.3,20.1,30.13,NNE,15,17.0,26.0,68,0.00,,,0.02,meteohub,2013-02-27 01:11:00,
2013-02-26 18:13:00,29.1,19.9,30.13,NE,36,22.0,30.0,68,0.00,,,0.02,meteohub,2013-02-27 01:13:00,
2013-02-26 18:15:00,29.1,19.9,30.14,NNE,19,19.0,30.0,68,0.00,,,0.02,meteohub,2013-02-27 01:15:00,
2013-02-26 18:16:00,29.1,19.9,30.14,NE,36,22.0,30.0,68,0.00,,,0.02,meteohub,2013-02-27 01:16:00,
2013-02-26 18:18:00,29.1,19.9,30.14,NE,48,19.0,30.0,68,0.00,,,0.02,meteohub,2013-02-27 01:18:00,
2013-02-26 18:21:00,28.9,19.8,30.14,NNE,19,13.0,30.0,68,0.00,,,0.02,meteohub,2013-02-27 01:21:00,
2013-02-26 18:22:00,28.9,20.1,30.14,North,10,16.0,26.0,69,0.00,,,0.02,meteohub,2013-02-27 01:22:00,
2013-02-26 18:23:00,28.9,20.1,30.14,North,9,14.0,26.0,69,0.00,,,0.02,meteohub,2013-02-27 01:23:00,
2013-02-26 18:26:00,28.9,20.1,30.15,NE,37,10.0,26.0,69,0.00,,,0.02,meteohub,2013-02-27 01:26:00,
2013-02-26 18:27:00,28.9,20.1,30.15,NNE,16,11.0,26.0,69,0.00,,,0.02,meteohub,2013-02-27 01:27:00,
2013-02-26 18:28:00,28.9,20.1,30.15,NNE,22,11.0,26.0,69,0.00,,,0.02,meteohub,2013-02-27 01:28:00,
2013-02-26 18:29:00,28.9,20.1,30.15,NE,51,13.0,26.0,69,0.00,,,0.02,meteohub,2013-02-27 01:29:00,
2013-02-26 18:33:00,28.9,20.1,30.15,North,5,10.0,26.0,69,0.00,,,0.02,meteohub,2013-02-27 01:33:00,
2013-02-26 18:34:00,28.9,20.1,30.15,North,10,11.0,26.0,69,0.00,,,0.02,meteohub,2013-02-27 01:34:00,
2013-02-26 18:37:00,28.9,20.1,30.15,NNE,24,13.0,20.0,69,0.00,,,0.02,meteohub,2013-02-27 01:37:00,
2013-02-26 18:38:00,28.9,20.1,30.15,NNE,15,17.0,20.0,69,0.00,,,0.02,meteohub,2013-02-27 01:38:00,
2013-02-26 18:39:00,28.9,19.8,30.15,NNE,24,10.0,20.0,68,0.00,,,0.02,meteohub,2013-02-27 01:39:00,
2013-02-26 18:42:00,28.9,19.8,30.16,North,355,9.0,21.0,68,0.00,,,0.02,meteohub,2013-02-27 01:42:00,
2013-02-26 18:44:00,28.9,19.8,30.16,NNE,15,9.0,21.0,68,0.00,,,0.02,meteohub,2013-02-27 01:44:00,
2013-02-26 18:45:00,28.9,19.8,30.16,North,0,10.0,21.0,68,0.00,,,0.02,meteohub,2013-02-27 01:45:00,
2013-02-26 18:46:00,28.9,19.4,30.16,NNE,29,19.0,21.0,67,0.00,,,0.02,meteohub,2013-02-27 01:46:00,
2013-02-26 18:47:00,28.9,19.4,30.16,NNE,22,15.0,21.0,67,0.00,,,0.02,meteohub,2013-02-27 01:47:00,
2013-02-26 18:49:00,28.9,19.4,30.16,NNE,27,11.0,21.0,67,0.00,,,0.02,meteohub,2013-02-27 01:49:00,
2013-02-26 18:50:00,28.9,19.4,30.16,NNE,19,9.0,21.0,67,0.00,,,0.02,meteohub,2013-02-27 01:50:00,
2013-02-26 18:52:00,29.1,19.2,30.16,NNE,14,11.0,22.0,66,0.00,,,0.02,meteohub,2013-02-27 01:52:00,
2013-02-26 18:54:00,29.1,19.2,30.17,North,5,12.0,22.0,66,0.00,,,0.02,meteohub,2013-02-27 01:54:00,
2013-02-26 18:55:00,29.1,19.2,30.17,North,9,13.0,22.0,66,0.00,,,0.02,meteohub,2013-02-27 01:55:00,
2013-02-26 18:59:00,29.1,19.2,30.17,North,5,11.0,22.0,66,0.00,,,0.02,meteohub,2013-02-27 01:59:00,
2013-02-26 19:00:00,29.1,19.2,30.17,North,5,8.0,22.0,66,0.00,,,0.02,meteohub,2013-02-27 02:00:00,
2013-02-26 19:01:00,29.1,19.2,30.17,North,0,13.0,22.0,66,0.00,,,0.02,meteohub,2013-02-27 02:01:00,
2013-02-26 19:04:00,29.1,18.9,30.17,North,5,13.0,22.0,65,0.00,,,0.02,meteohub,2013-02-27 02:04:00,
2013-02-26 19:05:00,29.1,18.9,30.17,North,5,9.0,22.0,65,0.00,,,0.02,meteohub,2013-02-27 02:05:00,
2013-02-26 19:06:00,29.1,18.9,30.17,North,0,10.0,20.0,65,0.00,,,0.02,meteohub,2013-02-27 02:06:00,
2013-02-26 19:07:00,29.1,18.9,30.17,NNW,343,7.0,20.0,65,0.00,,,0.02,meteohub,2013-02-27 02:07:00,
2013-02-26 19:10:00,29.1,18.9,30.18,NNE,19,10.0,20.0,65,0.00,,,0.02,meteohub,2013-02-27 02:10:00,
2013-02-26 19:12:00,29.1,18.9,30.18,North,355,8.0,19.0,65,0.00,,,0.02,meteohub,2013-02-27 02:12:00,
2013-02-26 19:13:00,29.1,18.9,30.18,North,355,9.0,19.0,65,0.00,,,0.02,meteohub,2013-02-27 02:13:00,
2013-02-26 19:15:00,29.1,18.9,30.18,NNE,12,14.0,19.0,65,0.00,,,0.02,meteohub,2013-02-27 02:15:00,
2013-02-26 19:17:00,29.1,18.9,30.18,NNE,30,12.0,19.0,65,0.00,,,0.02,meteohub,2013-02-27 02:17:00,
2013-02-26 19:19:00,29.1,18.9,30.18,North,355,5.0,19.0,65,0.00,,,0.02,meteohub,2013-02-27 02:19:00,
2013-02-26 19:20:00,29.1,18.9,30.18,NNW,343,9.0,19.0,65,0.00,,,0.02,meteohub,2013-02-27 02:20:00,
2013-02-26 19:21:00,29.1,18.9,30.19,NNE,16,11.0,16.0,65,0.00,,,0.02,meteohub,2013-02-27 02:21:00,
2013-02-26 19:24:00,29.1,18.9,30.19,NNW,346,3.0,16.0,65,0.00,,,0.02,meteohub,2013-02-27 02:24:00,
2013-02-26 19:25:00,29.1,18.9,30.19,NNW,346,7.0,16.0,65,0.00,,,0.02,meteohub,2013-02-27 02:25:00,
2013-02-26 19:29:00,29.1,19.2,30.19,NNW,332,3.0,14.0,66,0.00,,,0.02,meteohub,2013-02-27 02:29:00,
2013-02-26 19:30:00,28.9,19.0,30.19,NNW,332,4.0,14.0,66,0.00,,,0.02,meteohub,2013-02-27 02:30:00,
2013-02-26 19:32:00,29.1,19.2,30.19,NNW,330,2.0,13.0,66,0.00,,,0.02,meteohub,2013-02-27 02:32:00,
2013-02-26 19:34:00,28.9,19.0,30.19,NNW,342,5.0,13.0,66,0.00,,,0.02,meteohub,2013-02-27 02:34:00,
2013-02-26 19:35:00,28.9,19.0,30.19,NNW,342,2.0,13.0,66,0.00,,,0.02,meteohub,2013-02-27 02:35:00,
2013-02-26 19:37:00,28.9,19.0,30.19,NNW,342,2.0,11.0,66,0.00,,,0.02,meteohub,2013-02-27 02:37:00,
2013-02-26 19:39:00,28.9,19.4,30.19,NNW,342,2.0,11.0,67,0.00,,,0.02,meteohub,2013-02-27 02:39:00,
2013-02-26 19:40:00,28.9,19.4,30.19,NNW,342,4.0,11.0,67,0.00,,,0.02,meteohub,2013-02-27 02:40:00,
2013-02-26 19:42:00,28.9,19.0,30.20,NNW,342,3.0,9.0,66,0.00,,,0.02,meteohub,2013-02-27 02:42:00,
2013-02-26 19:43:00,28.9,19.0,30.20,NNW,342,3.0,9.0,66,0.00,,,0.02,meteohub,2013-02-27 02:43:00,
2013-02-26 19:44:00,28.9,19.0,30.20,NNW,342,1.0,9.0,66,0.00,,,0.02,meteohub,2013-02-27 02:44:00,
2013-02-26 19:47:00,28.9,19.0,30.20,NNW,342,0.0,7.0,66,0.00,,,0.02,meteohub,2013-02-27 02:47:00,
2013-02-26 19:49:00,28.8,18.9,30.20,NNW,342,3.0,7.0,66,0.00,,,0.02,meteohub,2013-02-27 02:49:00,
2013-02-26 19:50:00,28.8,18.9,30.20,NNW,342,3.0,7.0,66,0.00,,,0.02,meteohub,2013-02-27 02:50:00,
2013-02-26 19:52:00,28.8,18.9,30.20,NNW,342,1.0,5.0,66,0.00,,,0.02,meteohub,2013-02-27 02:52:00,
2013-02-26 19:53:00,28.8,18.9,30.20,NNW,342,1.0,5.0,66,0.00,,,0.02,meteohub,2013-02-27 02:53:00,
2013-02-26 19:54:00,28.8,18.9,30.20,NNW,342,0.0,5.0,66,0.00,,,0.02,meteohub,2013-02-27 02:54:00,
2013-02-26 19:57:00,28.8,18.9,30.20,NNW,342,3.0,4.0,66,0.00,,,0.02,meteohub,2013-02-27 02:57:00,
2013-02-26 20:00:00,28.8,18.9,30.21,NNW,342,3.0,4.0,66,0.00,,,0.02,meteohub,2013-02-27 03:00:00,
2013-02-26 20:02:00,28.8,18.9,30.21,NNW,342,3.0,5.0,66,0.00,,,0.02,meteohub,2013-02-27 03:02:00,
2013-02-26 20:06:00,28.8,18.9,30.21,NNW,328,4.0,5.0,66,0.00,,,0.02,meteohub,2013-02-27 03:06:00,
2013-02-26 20:08:00,28.6,18.7,30.21,NNW,342,5.0,8.0,66,0.00,,,0.02,meteohub,2013-02-27 03:08:00,
2013-02-26 20:09:00,28.6,18.7,30.21,NNW,333,3.0,8.0,66,0.00,,,0.02,meteohub,2013-02-27 03:09:00,
2013-02-26 20:11:00,28.6,18.7,30.22,NNW,345,8.0,10.0,66,0.00,,,0.02,meteohub,2013-02-27 03:11:00,
2013-02-26 20:14:00,28.6,18.3,30.22,North,355,6.0,10.0,65,0.00,,,0.02,meteohub,2013-02-27 03:14:00,
2013-02-26 20:15:00,28.8,18.5,30.22,NNW,342,12.0,12.0,65,0.00,,,0.02,meteohub,2013-02-27 03:15:00,
2013-02-26 20:17:00,28.8,18.5,30.22,North,9,17.0,17.0,65,0.00,,,0.02,meteohub,2013-02-27 03:17:00,
2013-02-26 20:20:00,28.9,18.3,30.22,NE,36,11.0,12.0,64,0.00,,,0.02,meteohub,2013-02-27 03:20:00,
2013-02-26 20:21:00,28.9,18.3,30.22,NNE,12,10.0,12.0,64,0.00,,,0.02,meteohub,2013-02-27 03:21:00,
2013-02-26 20:22:00,28.9,18.3,30.22,North,5,10.0,21.0,64,0.00,,,0.02,meteohub,2013-02-27 03:22:00,
2013-02-26 20:26:00,28.9,18.0,30.22,NNW,341,9.0,21.0,63,0.00,,,0.02,meteohub,2013-02-27 03:26:00,
2013-02-26 20:27:00,28.9,18.0,30.22,North,355,7.0,21.0,63,0.00,,,0.02,meteohub,2013-02-27 03:27:00,
2013-02-26 20:28:00,29.1,18.1,30.23,North,355,7.0,21.0,63,0.00,,,0.02,meteohub,2013-02-27 03:28:00,
2013-02-26 20:29:00,29.1,18.1,30.23,North,5,7.0,21.0,63,0.00,,,0.02,meteohub,2013-02-27 03:29:00,
2013-02-26 20:32:00,29.1,18.1,30.23,North,355,8.0,21.0,63,0.00,,,0.02,meteohub,2013-02-27 03:32:00,
2013-02-26 20:35:00,29.1,17.8,30.23,North,5,9.0,21.0,62,0.00,,,0.02,meteohub,2013-02-27 03:35:00,
2013-02-26 20:37:00,29.1,17.8,30.23,North,355,14.0,20.0,62,0.00,,,0.02,meteohub,2013-02-27 03:37:00,
2013-02-26 20:39:00,29.1,17.4,30.23,North,5,12.0,20.0,61,0.00,,,0.02,meteohub,2013-02-27 03:39:00,
2013-02-26 20:40:00,29.3,17.6,30.23,North,0,8.0,20.0,61,0.00,,,0.02,meteohub,2013-02-27 03:40:00,
2013-02-26 20:42:00,29.5,17.8,30.23,NNW,348,7.0,17.0,61,0.00,,,0.02,meteohub,2013-02-27 03:42:00,
2013-02-26 20:44:00,29.5,17.8,30.24,NNE,15,7.0,17.0,61,0.00,,,0.02,meteohub,2013-02-27 03:44:00,
2013-02-26 20:46:00,29.5,17.2,30.24,North,9,11.0,17.0,60,0.00,,,0.02,meteohub,2013-02-27 03:46:00,
2013-02-26 20:47:00,29.5,17.2,30.24,North,5,6.0,17.0,60,0.00,,,0.02,meteohub,2013-02-27 03:47:00,
2013-02-26 20:48:00,29.5,17.2,30.24,NNE,17,7.0,17.0,60,0.00,,,0.02,meteohub,2013-02-27 03:48:00,
2013-02-26 20:51:00,29.5,17.8,30.24,NNE,13,10.0,17.0,61,0.00,,,0.02,meteohub,2013-02-27 03:51:00,
2013-02-26 20:52:00,29.5,17.8,30.24,NNE,12,7.0,17.0,61,0.00,,,0.02,meteohub,2013-02-27 03:52:00,
2013-02-26 20:53:00,29.5,17.8,30.24,NNE,13,5.0,17.0,61,0.00,,,0.02,meteohub,2013-02-27 03:53:00,
2013-02-26 20:54:00,29.5,17.8,30.24,NNE,13,6.0,17.0,61,0.00,,,0.02,meteohub,2013-02-27 03:54:00,
2013-02-26 20:58:00,29.5,17.8,30.25,NNW,339,7.0,14.0,61,0.00,,,0.02,meteohub,2013-02-27 03:58:00,
2013-02-26 20:59:00,29.5,17.8,30.25,NNE,30,8.0,14.0,61,0.00,,,0.02,meteohub,2013-02-27 03:59:00,
2013-02-26 21:00:00,29.5,17.8,30.25,NNE,23,5.0,14.0,61,0.00,,,0.02,meteohub,2013-02-27 04:00:00,
2013-02-26 21:02:00,29.5,17.8,30.25,NNE,13,6.0,14.0,61,0.00,,,0.02,meteohub,2013-02-27 04:02:00,
2013-02-26 21:04:00,29.5,18.1,30.25,North,351,4.0,14.0,62,0.00,,,0.02,meteohub,2013-02-27 04:04:00,
2013-02-26 21:05:00,29.3,18.0,30.25,NNE,13,11.0,14.0,62,0.00,,,0.02,meteohub,2013-02-27 04:05:00,
2013-02-26 21:06:00,29.3,18.0,30.25,North,5,7.0,14.0,62,0.00,,,0.02,meteohub,2013-02-27 04:06:00,
2013-02-26 21:07:00,29.3,17.6,30.24,NNE,30,13.0,16.0,61,0.00,,,0.02,meteohub,2013-02-27 04:07:00,
2013-02-26 21:12:00,29.5,17.2,30.24,NNE,32,16.0,22.0,60,0.00,,,0.02,meteohub,2013-02-27 04:12:00,
2013-02-26 21:13:00,29.5,17.2,30.24,North,0,23.0,23.0,60,0.00,,,0.02,meteohub,2013-02-27 04:13:00,
2013-02-26 21:17:00,29.7,17.1,30.25,North,355,10.0,22.0,59,0.00,,,0.02,meteohub,2013-02-27 04:17:00,
2013-02-26 21:18:00,29.7,17.1,30.25,NNE,17,21.0,22.0,59,0.00,,,0.02,meteohub,2013-02-27 04:18:00,
2013-02-26 21:19:00,29.7,17.1,30.25,NNE,12,13.0,22.0,59,0.00,,,0.02,meteohub,2013-02-27 04:19:00,
2013-02-26 21:20:00,29.7,17.1,30.25,NNE,16,12.0,22.0,59,0.00,,,0.02,meteohub,2013-02-27 04:20:00,
2013-02-26 21:23:00,29.7,16.7,30.25,North,5,16.0,22.0,58,0.00,,,0.02,meteohub,2013-02-27 04:23:00,
2013-02-26 21:24:00,29.8,16.9,30.25,NNE,13,20.0,22.0,58,0.00,,,0.02,meteohub,2013-02-27 04:24:00,
2013-02-26 21:25:00,29.8,16.9,30.25,NE,36,21.0,22.0,58,0.00,,,0.02,meteohub,2013-02-27 04:25:00,
2013-02-26 21:29:00,29.8,16.9,30.25,North,5,12.0,24.0,58,0.00,,,0.02,meteohub,2013-02-27 04:29:00,
2013-02-26 21:30:00,29.8,16.9,30.25,NNE,23,11.0,24.0,58,0.00,,,0.02,meteohub,2013-02-27 04:30:00,
2013-02-26 21:32:00,29.8,16.9,30.25,North,350,9.0,24.0,58,0.00,,,0.02,meteohub,2013-02-27 04:32:00,
2013-02-26 21:34:00,29.8,16.9,30.25,North,0,14.0,24.0,58,0.00,,,0.02,meteohub,2013-02-27 04:34:00,
2013-02-26 21:37:00,29.8,16.9,30.25,NNE,30,16.0,24.0,58,0.00,,,0.02,meteohub,2013-02-27 04:37:00,
2013-02-26 21:38:00,29.7,16.7,30.25,NE,36,18.0,24.0,58,0.00,,,0.02,meteohub,2013-02-27 04:38:00,
2013-02-26 21:40:00,29.7,16.7,30.25,NNE,16,14.0,24.0,58,0.00,,,0.02,meteohub,2013-02-27 04:40:00,
2013-02-26 21:44:00,29.7,16.7,30.25,NNE,29,12.0,25.0,58,0.00,,,0.02,meteohub,2013-02-27 04:44:00,
2013-02-26 21:45:00,29.7,16.7,30.25,NNE,25,15.0,25.0,58,0.00,,,0.02,meteohub,2013-02-27 04:45:00,
2013-02-26 21:46:00,29.5,16.5,30.25,NE,49,19.0,25.0,58,0.00,,,0.02,meteohub,2013-02-27 04:46:00,
2013-02-26 21:50:00,29.5,16.9,30.25,NNE,19,22.0,25.0,59,0.00,,,0.02,meteohub,2013-02-27 04:50:00,
2013-02-26 21:51:00,29.3,16.3,30.25,NNE,32,14.0,25.0,58,0.00,,,0.02,meteohub,2013-02-27 04:51:00,
2013-02-26 21:53:00,29.3,16.3,30.25,NNE,15,19.0,25.0,58,0.00,,,0.02,meteohub,2013-02-27 04:53:00,
2013-02-26 21:57:00,29.1,16.5,30.25,NNE,19,15.0,25.0,59,0.00,,,0.02,meteohub,2013-02-27 04:57:00,
2013-02-26 21:58:00,29.1,16.5,30.25,NE,43,17.0,26.0,59,0.00,,,0.02,meteohub,2013-02-27 04:58:00,
2013-02-26 21:59:00,29.1,16.5,30.25,NNE,19,16.0,26.0,59,0.00,,,0.02,meteohub,2013-02-27 04:59:00,
2013-02-26 22:00:00,28.9,16.9,30.25,NE,44,12.0,26.0,60,0.00,,,0.02,meteohub,2013-02-27 05:00:00,
2013-02-26 22:01:00,28.9,16.9,30.25,NE,36,19.0,26.0,60,0.00,,,0.02,meteohub,2013-02-27 05:01:00,
2013-02-26 22:04:00,28.9,16.9,30.25,NNE,22,19.0,26.0,60,0.00,,,0.02,meteohub,2013-02-27 05:04:00,
2013-02-26 22:06:00,28.8,16.7,30.25,NE,34,9.0,26.0,60,0.00,,,0.02,meteohub,2013-02-27 05:06:00,
2013-02-26 22:07:00,28.8,16.7,30.25,NE,35,10.0,26.0,60,0.00,,,0.02,meteohub,2013-02-27 05:07:00,
2013-02-26 22:10:00,28.8,16.7,30.25,NE,49,12.0,26.0,60,0.00,,,0.02,meteohub,2013-02-27 05:10:00,
2013-02-26 22:12:00,28.8,16.7,30.25,NE,34,21.0,26.0,60,0.00,,,0.02,meteohub,2013-02-27 05:12:00,
2013-02-26 22:14:00,28.6,16.9,30.25,NE,48,11.0,24.0,61,0.00,,,0.02,meteohub,2013-02-27 05:14:00,
2013-02-26 22:17:00,28.6,16.5,30.26,NE,34,18.0,24.0,60,0.00,,,0.02,meteohub,2013-02-27 05:17:00,
2013-02-26 22:18:00,28.4,16.3,30.25,NNE,29,12.0,24.0,60,0.00,,,0.02,meteohub,2013-02-27 05:18:00,
2013-02-26 22:20:00,28.4,16.3,30.25,NNE,26,9.0,24.0,60,0.00,,,0.02,meteohub,2013-02-27 05:20:00,
2013-02-26 22:22:00,28.4,16.7,30.26,NNE,17,17.0,24.0,61,0.00,,,0.02,meteohub,2013-02-27 05:22:00,
2013-02-26 22:23:00,28.2,16.5,30.26,NNE,21,10.0,24.0,61,0.00,,,0.02,meteohub,2013-02-27 05:23:00,
2013-02-26 22:26:00,28.2,16.5,30.26,NE,42,8.0,24.0,61,0.00,,,0.02,meteohub,2013-02-27 05:26:00,
2013-02-26 22:29:00,28.0,16.3,30.26,NNE,13,16.0,23.0,61,0.00,,,0.02,meteohub,2013-02-27 05:29:00,
2013-02-26 22:32:00,28.0,16.0,30.26,NNE,16,10.0,23.0,60,0.00,,,0.02,meteohub,2013-02-27 05:32:00,
2013-02-26 22:36:00,28.0,16.0,30.27,NNE,15,13.0,23.0,60,0.00,,,0.02,meteohub,2013-02-27 05:36:00,
2013-02-26 22:37:00,28.0,16.0,30.27,NNE,16,11.0,23.0,60,0.00,,,0.02,meteohub,2013-02-27 05:37:00,
2013-02-26 22:39:00,28.0,16.0,30.27,North,5,13.0,23.0,60,0.00,,,0.02,meteohub,2013-02-27 05:39:00,
2013-02-26 22:42:00,28.0,15.6,30.27,NNW,328,9.0,23.0,59,0.00,,,0.02,meteohub,2013-02-27 05:42:00,
2013-02-26 22:43:00,28.0,15.6,30.27,North,5,4.0,23.0,59,0.00,,,0.02,meteohub,2013-02-27 05:43:00,
2013-02-26 22:46:00,28.0,15.6,30.27,North,0,6.0,23.0,59,0.00,,,0.02,meteohub,2013-02-27 05:46:00,
2013-02-26 22:47:00,28.0,15.6,30.28,NNW,337,9.0,23.0,59,0.00,,,0.02,meteohub,2013-02-27 05:47:00,
2013-02-26 22:48:00,28.0,15.6,30.28,NNW,342,4.0,23.0,59,0.00,,,0.02,meteohub,2013-02-27 05:48:00,
2013-02-26 22:51:00,28.0,16.0,30.28,WNW,287,1.0,23.0,60,0.00,,,0.02,meteohub,2013-02-27 05:51:00,
2013-02-26 22:52:00,28.0,16.0,30.28,WNW,287,7.0,23.0,60,0.00,,,0.02,meteohub,2013-02-27 05:52:00,
2013-02-26 22:53:00,28.0,16.3,30.28,NNW,341,4.0,23.0,61,0.00,,,0.02,meteohub,2013-02-27 05:53:00,
2013-02-26 22:54:00,28.0,16.3,30.28,NNW,332,5.0,23.0,61,0.00,,,0.02,meteohub,2013-02-27 05:54:00,
2013-02-26 22:57:00,28.0,16.7,30.28,NW,321,8.0,23.0,62,0.00,,,0.02,meteohub,2013-02-27 05:57:00,
2013-02-26 22:58:00,28.0,16.7,30.28,NNW,336,4.0,12.0,62,0.00,,,0.02,meteohub,2013-02-27 05:58:00,
2013-02-26 23:01:00,27.9,16.5,30.28,NNW,329,4.0,12.0,62,0.00,,,0.02,meteohub,2013-02-27 06:01:00,
2013-02-26 23:03:00,27.9,16.5,30.28,NW,326,5.0,12.0,62,0.00,,,0.02,meteohub,2013-02-27 06:03:00,
2013-02-26 23:05:00,27.9,16.5,30.28,North,5,6.0,12.0,62,0.00,,,0.02,meteohub,2013-02-27 06:05:00,
2013-02-26 23:07:00,27.9,16.5,30.28,North,355,8.0,12.0,62,0.00,,,0.02,meteohub,2013-02-27 06:07:00,
2013-02-26 23:08:00,27.9,16.5,30.28,NNW,340,4.0,12.0,62,0.00,,,0.02,meteohub,2013-02-27 06:08:00,
2013-02-26 23:10:00,27.7,16.3,30.28,NNW,341,6.0,12.0,62,0.00,,,0.02,meteohub,2013-02-27 06:10:00,
2013-02-26 23:12:00,27.7,16.3,30.28,NNW,338,5.0,12.0,62,0.00,,,0.02,meteohub,2013-02-27 06:12:00,
2013-02-26 23:15:00,27.7,16.3,30.28,NNW,333,3.0,9.0,62,0.00,,,0.02,meteohub,2013-02-27 06:15:00,
2013-02-26 23:17:00,27.7,16.3,30.28,NNW,336,4.0,9.0,62,0.00,,,0.02,meteohub,2013-02-27 06:17:00,
2013-02-26 23:19:00,27.7,16.0,30.29,NNW,344,8.0,9.0,61,0.00,,,0.02,meteohub,2013-02-27 06:19:00,
2013-02-26 23:21:00,27.7,16.0,30.28,North,351,8.0,9.0,61,0.00,,,0.02,meteohub,2013-02-27 06:21:00,
2013-02-26 23:22:00,27.7,16.0,30.29,NW,325,5.0,9.0,61,0.00,,,0.02,meteohub,2013-02-27 06:22:00,
2013-02-26 23:24:00,27.7,16.0,30.29,NNW,343,7.0,9.0,61,0.00,,,0.02,meteohub,2013-02-27 06:24:00,
2013-02-26 23:25:00,27.7,16.0,30.29,NW,312,6.0,9.0,61,0.00,,,0.02,meteohub,2013-02-27 06:25:00,
2013-02-26 23:27:00,27.7,16.0,30.29,NNW,338,6.0,9.0,61,0.00,,,0.02,meteohub,2013-02-27 06:27:00,
2013-02-26 23:30:00,27.7,16.0,30.29,NNW,338,4.0,11.0,61,0.00,,,0.02,meteohub,2013-02-27 06:30:00,
2013-02-26 23:32:00,27.7,16.0,30.29,NNW,343,3.0,11.0,61,0.00,,,0.02,meteohub,2013-02-27 06:32:00,
2013-02-26 23:35:00,27.7,16.0,30.29,North,351,3.0,11.0,61,0.00,,,0.02,meteohub,2013-02-27 06:35:00,
2013-02-26 23:36:00,27.7,16.0,30.29,North,351,5.0,11.0,61,0.00,,,0.02,meteohub,2013-02-27 06:36:00,
2013-02-26 23:37:00,27.7,16.0,30.29,North,351,4.0,11.0,61,0.00,,,0.02,meteohub,2013-02-27 06:37:00,
2013-02-26 23:38:00,27.7,16.0,30.29,North,355,1.0,11.0,61,0.00,,,0.02,meteohub,2013-02-27 06:38:00,
2013-02-26 23:42:00,27.7,16.0,30.29,NNW,338,5.0,11.0,61,0.00,,,0.02,meteohub,2013-02-27 06:42:00,
2013-02-26 23:43:00,27.7,16.0,30.29,NNW,344,6.0,8.0,61,0.00,,,0.02,meteohub,2013-02-27 06:43:00,
2013-02-26 23:47:00,27.5,15.8,30.29,NNW,347,2.0,8.0,61,0.00,,,0.02,meteohub,2013-02-27 06:47:00,
2013-02-26 23:48:00,27.5,15.8,30.29,NNW,347,4.0,8.0,61,0.00,,,0.02,meteohub,2013-02-27 06:48:00,
2013-02-26 23:51:00,27.5,15.8,30.29,NNW,346,4.0,8.0,61,0.00,,,0.02,meteohub,2013-02-27 06:51:00,
2013-02-26 23:52:00,27.3,15.6,30.29,NNW,346,5.0,8.0,61,0.00,,,0.02,meteohub,2013-02-27 06:52:00,
2013-02-26 23:54:00,27.3,15.6,30.29,NNW,346,5.0,8.0,61,0.00,,,0.02,meteohub,2013-02-27 06:54:00,
2013-02-26 23:55:00,27.3,15.6,30.29,NNW,346,3.0,8.0,61,0.00,,,0.02,meteohub,2013-02-27 06:55:00,
2013-02-26 23:56:00,27.3,15.6,30.29,North,5,4.0,8.0,61,0.00,,,0.02,meteohub,2013-02-27 06:56:00,
2013-02-26 23:57:00,27.3,15.6,30.29,North,349,5.0,7.0,61,0.00,,,0.02,meteohub,2013-02-27 06:57:00,